FW0860 Weather Reports


Display with metric or nautical units.
time (UTC)temp
F
wind
direction
speed
MPH
gust
MPH
rain 1hr
in
rain 24hr
in
rain mn
in
humidity
%
barometer
mb
20260904030220 91 360 2.0 7.0 0.00 0.00 0.00 47 1008.4
20260904030132 91 360 2.0 7.0 0.00 0.00 0.00 47 1008.4
20260904030106 91 360 2.0 7.0 0.00 0.00 0.00 47 1008.4
20260904025925 91 360 2.0 7.0 0.00 0.00 0.00 47 1008.3
20260904025846 91 360 2.0 7.0 0.00 0.00 0.00 47 1008.4
20260904025754 91 360 2.0 7.0 0.00 0.00 0.00 47 1008.4
20260904025633 91 360 2.0 8.0 0.00 0.00 0.00 47 1008.4
20260904025515 92 360 2.0 8.0 0.00 0.00 0.00 47 1008.5
20260904025445 92 360 2.0 8.0 0.00 0.00 0.00 47 1008.4
20260904025330 92 360 3.0 8.0 0.00 0.00 0.00 47 1008.4
20260904025239 92 360 2.0 8.0 0.00 0.00 0.00 46 1008.4
20260904025121 92 360 1.0 10.0 0.00 0.00 0.00 46 1008.4
20260904025023 92 360 2.0 10.0 0.00 0.00 0.00 46 1008.4
20260904024925 92 360 2.0 10.0 0.00 0.00 0.00 46 1008.4
20260904024835 92 360 2.0 10.0 0.00 0.00 0.00 46 1008.4
20260904024721 92 127 2.0 10.0 0.00 0.00 0.00 46 1008.3
20260904024623 92 360 2.0 10.0 0.00 0.00 0.00 45 1008.2
20260904024525 92 360 3.0 10.0 0.00 0.00 0.00 45 1008.1
20260904024434 92 126 3.0 11.0 0.00 0.00 0.00 45 1008.1
20260904024341 92 125 2.0 11.0 0.00 0.00 0.00 45 1008.1
20260904024222 92 125 2.0 11.0 0.00 0.00 0.00 45 1008.1
20260904024123 92 125 2.0 11.0 0.00 0.00 0.00 45 1008.1
20260904024029 93 125 2.0 11.0 0.00 0.00 0.00 45 1008.1
20260904023939 93 125 2.0 11.0 0.00 0.00 0.00 45 1008.1
20260904023822 93 125 3.0 12.0 0.00 0.00 0.00 45 1008.1
20260904023723 93 124 4.0 12.0 0.00 0.00 0.00 45 1008.0
20260904023624 93 125 4.0 12.0 0.00 0.00 0.00 45 1008.0
20260904023517 93 126 3.0 13.0 0.00 0.00 0.00 44 1008.1
20260904023439 93 129 2.0 13.0 0.00 0.00 0.00 44 1008.1
20260904023328 93 130 2.0 13.0 0.00 0.00 0.00 44 1008.2
20260904023231 93 130 3.0 13.0 0.00 0.00 0.00 44 1008.2
20260904023133 93 129 5.0 13.0 0.00 0.00 0.00 44 1008.1
20260904023042 93 131 5.0 13.0 0.00 0.00 0.00 44 1008.2
20260904022924 94 132 6.0 13.0 0.00 0.00 0.00 44 1008.2
20260904022831 94 132 5.0 13.0 0.00 0.00 0.00 43 1008.2
20260904022732 94 129 6.0 13.0 0.00 0.00 0.00 44 1008.3
20260904022641 94 133 5.0 11.0 0.00 0.00 0.00 43 1008.2
20260904022524 94 132 3.0 8.0 0.00 0.00 0.00 43 1008.2
20260904022425 94 132 2.0 8.0 0.00 0.00 0.00 43 1008.2
20260904022334 94 132 2.0 8.0 0.00 0.00 0.00 43 1008.2
20260904022219 94 132 3.0 8.0 0.00 0.00 0.00 43 1008.1
20260904022120 94 132 2.0 8.0 0.00 0.00 0.00 43 1008.1
20260904022028 94 132 1.0 8.0 0.00 0.00 0.00 42 1008.0
20260904022000 94 132 2.0 8.0 0.00 0.00 0.00 42 1008.0
20260904021821 94 132 4.0 8.0 0.00 0.00 0.00 42 1008.0
20260904021722 94 132 3.0 7.0 0.00 0.00 0.00 42 1008.0
20260904021631 94 132 3.0 7.0 0.00 0.00 0.00 42 1008.0
20260904021516 95 132 2.0 9.0 0.00 0.00 0.00 42 1008.0
20260904021419 95 132 2.0 9.0 0.00 0.00 0.00 42 1008.0
20260904021321 95 132 2.0 9.0 0.00 0.00 0.00 42 1008.0
20260904021231 95 132 1.0 9.0 0.00 0.00 0.00 42 1008.0
20260904021133 95 132 1.0 11.0 0.00 0.00 0.00 41 1008.0
20260904021101 95 132 1.0 11.0 0.00 0.00 0.00 41 1008.0
20260904020942 95 132 4.0 11.0 0.00 0.00 0.00 41 1008.1
20260904020827 95 132 5.0 11.0 0.00 0.00 0.00 41 1008.1
20260904020735 95 132 5.0 11.0 0.00 0.00 0.00 41 1008.1
20260904020617 95 129 3.0 11.0 0.00 0.00 0.00 41 1008.1
20260904020519 95 129 4.0 11.0 0.00 0.00 0.00 40 1008.1
20260904020448 95 129 4.0 11.0 0.00 0.00 0.00 40 1008.1
20260904020328 95 120 2.0 5.0 0.00 0.00 0.00 40 1008.0
20260904020241 95 118 2.0 6.0 0.00 0.00 0.00 41 1008.0
20260904020122 95 117 1.0 6.0 0.00 0.00 0.00 41 1008.0
20260904020045 95 117 1.0 8.0 0.00 0.00 0.00 41 1008.0
20260904015934 96 117 1.0 8.0 0.00 0.00 0.00 41 1008.0
20260904015815 96 117 1.0 8.0 0.00 0.00 0.00 41 1007.9
20260904015717 96 118 1.0 8.0 0.00 0.00 0.00 41 1008.0
20260904015631 96 117 2.0 8.0 0.00 0.00 0.00 41 1008.0
20260904015532 96 117 2.0 8.0 0.00 0.00 0.00 41 1007.9
20260904015502 96 118 2.0 8.0 0.00 0.00 0.00 40 1007.9
20260904015322 96 117 2.0 8.0 0.00 0.00 0.00 40 1007.7
20260904015225 96 117 2.0 8.0 0.00 0.00 0.00 40 1007.7
20260904015126 96 113 2.0 10.0 0.00 0.00 0.00 40 1007.7
20260904015035 97 113 2.0 10.0 0.00 0.00 0.00 39 1007.7
20260904014922 97 113 1.0 10.0 0.00 0.00 0.00 39 1007.6
20260904014842 97 112 1.0 10.0 0.00 0.00 0.00 38 1007.6
20260904014732 97 112 2.0 10.0 0.00 0.00 0.00 38 1007.6
20260904014634 98 112 2.0 10.0 0.00 0.00 0.00 38 1007.6
20260904014517 98 110 2.0 10.0 0.00 0.00 0.00 38 1007.6
20260904014415 98 109 3.0 10.0 0.00 0.00 0.00 37 1007.6
20260904014328 98 108 3.0 10.0 0.00 0.00 0.00 37 1007.6
20260904014259 99 108 4.0 10.0 0.00 0.00 0.00 36 1007.6
20260904014039 99 104 1.0 5.0 0.00 0.00 0.00 33 1007.5
20260904013940 99 104 1.0 3.0 0.00 0.00 0.00 33 1007.5
20260904013822 99 104 2.0 3.0 0.00 0.00 0.00 33 1007.5
20260904013723 99 104 1.0 3.0 0.00 0.00 0.00 33 1007.4
20260904013637 99 104 1.0 3.0 0.00 0.00 0.00 33 1007.4
20260904013520 99 104 1.0 4.0 0.00 0.00 0.00 33 1007.3
20260904013423 99 104 1.0 4.0 0.00 0.00 0.00 33 1007.3
20260904013326 99 104 1.0 4.0 0.00 0.00 0.00 33 1007.3
20260904013237 99 104 1.0 4.0 0.00 0.00 0.00 33 1007.3
20260904013123 99 104 1.0 4.0 0.00 0.00 0.00 33 1007.2
20260904013045 99 104 1.0 4.0 0.00 0.00 0.00 33 1007.2
20260904012932 99 104 2.0 4.0 0.00 0.00 0.00 33 1007.2
20260904012835 99 104 2.0 4.0 0.00 0.00 0.00 33 1007.2
20260904012716 99 104 2.0 4.0 0.00 0.00 0.00 33 1007.2
20260904012626 99 104 1.0 4.0 0.00 0.00 0.00 33 1007.2
20260904012528 99 104 1.0 3.0 0.00 0.00 0.00 33 1007.3
20260904012442 99 104 1.0 3.0 0.00 0.00 0.00 33 1007.3
20260904012322 99 104 2.0 3.0 0.00 0.00 0.00 33 1007.3
20260904012224 99 104 2.0 3.0 0.00 0.00 0.00 33 1007.3
20260904012134 99 104 1.0 3.0 0.00 0.00 0.00 33 1007.3
20260904012056 99 103 1.0 4.0 0.00 0.00 0.00 33 1007.3
20260904011916 99 103 1.0 4.0 0.00 0.00 0.00 33 1007.3
20260904011826 99 103 1.0 4.0 0.00 0.00 0.00 33 1007.3
20260904011734 99 103 0.0 4.0 0.00 0.00 0.00 33 1007.3
20260904011615 99 103 1.0 4.0 0.00 0.00 0.00 33 1007.3
20260904011517 99 103 1.0 4.0 0.00 0.00 0.00 33 1007.3
20260904011427 99 103 1.0 4.0 0.00 0.00 0.00 33 1007.2
20260904011328 99 103 1.0 4.0 0.00 0.00 0.00 33 1007.2
20260904011231 99 103 1.0 4.0 0.00 0.00 0.00 32 1007.2
20260904011115 99 103 0.0 2.0 0.00 0.00 0.00 33 1007.3
20260904011025 99 103 0.0 2.0 0.00 0.00 0.00 32 1007.3
20260904010945 99 103 0.0 2.0 0.00 0.00 0.00 32 1007.2
20260904010834 99 103 1.0 3.0 0.00 0.00 0.00 32 1007.2
20260904010717 99 103 1.0 3.0 0.00 0.00 0.00 33 1007.3
20260904010619 99 103 1.0 3.0 0.00 0.00 0.00 32 1007.3
20260904010525 99 103 1.0 3.0 0.00 0.00 0.00 32 1007.3
20260904010435 99 103 1.0 3.0 0.00 0.00 0.00 32 1007.3
20260904010317 99 103 1.0 3.0 0.00 0.00 0.00 32 1007.5
20260904010219 99 103 1.0 3.0 0.00 0.00 0.00 32 1007.4
20260904010121 99 103 1.0 3.0 0.00 0.00 0.00 32 1007.4
20260904010042 99 103 1.0 3.0 0.00 0.00 0.00 32 1007.4
20260904005917 100 103 0.0 3.0 0.00 0.00 0.00 32 1007.4
20260904005819 100 103 1.0 3.0 0.00 0.00 0.00 32 1007.4
20260904005728 100 103 1.0 3.0 0.00 0.00 0.00 32 1007.5
20260904005631 100 103 0.0 3.0 0.00 0.00 0.00 32 1007.5
20260904005533 100 103 0.0 3.0 0.00 0.00 0.00 32 1007.5
20260904005442 100 103 1.0 3.0 0.00 0.00 0.00 32 1007.5
20260904005327 100 103 1.0 3.0 0.00 0.00 0.00 32 1007.4
20260904005228 100 103 1.0 3.0 0.00 0.00 0.00 32 1007.3
20260904005138 100 103 1.0 3.0 0.00 0.00 0.00 32 1007.3
20260904005019 100 103 1.0 3.0 0.00 0.00 0.00 32 1007.3
20260904004921 100 103 1.0 3.0 0.00 0.00 0.00 32 1007.3
20260904004823 100 103 1.0 3.0 0.00 0.00 0.00 32 1007.4
20260904004716 100 103 1.0 3.0 0.00 0.00 0.00 32 1007.4
20260904004638 100 103 1.0 3.0 0.00 0.00 0.00 32 1007.4
20260904004546 100 103 1.0 3.0 0.00 0.00 0.00 32 1007.4
20260904004426 100 103 1.0 3.0 0.00 0.00 0.00 32 1007.4
20260904004336 100 103 1.0 3.0 0.00 0.00 0.00 32 1007.4
20260904004218 100 103 1.0 3.0 0.00 0.00 0.00 32 1007.5
20260904004124 100 103 1.0 3.0 0.00 0.00 0.00 32 1007.5
20260904004054 100 103 1.0 3.0 0.00 0.00 0.00 32 1007.5
20260904003934 100 103 1.0 3.0 0.00 0.00 0.00 32 1007.5
20260904003815 100 103 1.0 3.0 0.00 0.00 0.00 32 1007.4
20260904003745 100 103 1.0 3.0 0.00 0.00 0.00 32 1007.4
20260904003626 100 103 1.0 3.0 0.00 0.00 0.00 32 1007.4
20260904003528 100 103 1.0 3.0 0.00 0.00 0.00 32 1007.4
20260904003421 100 103 1.0 3.0 0.00 0.00 0.00 32 1007.4
20260904003323 100 103 1.0 3.0 0.00 0.00 0.00 32 1007.5
20260904003225 100 103 1.0 4.0 0.00 0.00 0.00 32 1007.5
20260904003136 100 103 2.0 4.0 0.00 0.00 0.00 32 1007.5
20260904003019 100 103 2.0 5.0 0.00 0.00 0.00 32 1007.5
20260904002921 100 103 1.0 5.0 0.00 0.00 0.00 32 1007.4
20260904002856 100 103 1.0 5.0 0.00 0.00 0.00 33 1007.4
20260904002717 100 103 1.0 5.0 0.00 0.00 0.00 32 1007.4
20260904002620 100 103 1.0 5.0 0.00 0.00 0.00 32 1007.3
20260904002549 100 103 1.0 5.0 0.00 0.00 0.00 32 1007.4
20260904002431 100 103 1.0 5.0 0.00 0.00 0.00 32 1007.4
20260904002359 100 103 1.0 5.0 0.00 0.00 0.00 32 1007.4
20260904002219 100 103 1.0 5.0 0.00 0.00 0.00 31 1007.5
20260904002124 100 103 1.0 2.0 0.00 0.00 0.00 31 1007.6
20260904002034 100 103 1.0 2.0 0.00 0.00 0.00 31 1007.6
20260904001915 100 103 1.0 2.0 0.00 0.00 0.00 32 1007.5
20260904001817 100 103 1.0 2.0 0.00 0.00 0.00 32 1007.5
20260904001720 100 103 1.0 2.0 0.00 0.00 0.00 31 1007.6
20260904001650 100 103 1.0 2.0 0.00 0.00 0.00 31 1007.6
20260904001537 100 103 1.0 2.0 0.00 0.00 0.00 31 1007.6
20260904001421 100 103 1.0 2.0 0.00 0.00 0.00 32 1007.6
20260904001351 100 103 1.0 2.0 0.00 0.00 0.00 32 1007.6
20260904001232 100 103 1.0 2.0 0.00 0.00 0.00 32 1007.5
20260904001134 100 103 1.0 2.0 0.00 0.00 0.00 31 1007.5
20260904001016 100 103 1.0 2.0 0.00 0.00 0.00 31 1007.4
20260904000926 100 103 0.0 1.0 0.00 0.00 0.00 32 1007.4
20260904000834 100 103 0.0 1.0 0.00 0.00 0.00 31 1007.4
20260904000737 100 103 0.0 1.0 0.00 0.00 0.00 31 1007.4
20260904000625 100 103 0.0 1.0 0.00 0.00 0.00 32 1007.4
20260904000547 100 103 0.0 1.0 0.00 0.00 0.00 32 1007.5
20260904000436 100 103 0.0 1.0 0.00 0.00 0.00 32 1007.5
20260904000337 100 103 0.0 3.0 0.00 0.00 0.00 32 1007.4
20260904000226 100 103 0.0 3.0 0.00 0.00 0.00 32 1007.5
20260904000131 100 103 0.0 3.0 0.00 0.00 0.00 31 1007.5
20260904000052 100 103 0.0 3.0 0.00 0.00 0.00 32 1007.5
20260903235922 100 103 0.0 3.0 0.00 0.00 0.00 31 1007.5
20260903235823 100 103 0.0 3.0 0.00 0.00 0.00 32 1007.5
20260903235725 100 103 1.0 3.0 0.00 0.00 0.00 31 1007.6
20260903235635 100 103 1.0 3.0 0.00 0.00 0.00 32 1007.6
20260903235541 100 103 1.0 3.0 0.00 0.00 0.00 31 1007.5
20260903235449 100 103 1.0 3.0 0.00 0.00 0.00 32 1007.6
20260903235326 100 103 1.0 3.0 0.00 0.00 0.00 32 1007.6
20260903235256 100 103 1.0 3.0 0.00 0.00 0.00 31 1007.6
20260903235118 100 103 0.0 3.0 0.00 0.00 0.00 31 1007.6
20260903235019 100 103 0.0 3.0 0.00 0.00 0.00 31 1007.6
20260903234928 100 103 0.0 3.0 0.00 0.00 0.00 31 1007.6
20260903234831 100 103 0.0 3.0 0.00 0.00 0.00 31 1007.6
20260903234717 100 103 0.0 3.0 0.00 0.00 0.00 31 1007.6
20260903234619 100 103 1.0 3.0 0.00 0.00 0.00 31 1007.6
20260903234527 100 103 1.0 3.0 0.00 0.00 0.00 31 1007.6
20260903234448 100 103 2.0 3.0 0.00 0.00 0.00 31 1007.6
20260903234336 100 103 1.0 3.0 0.00 0.00 0.00 31 1007.6
20260903234218 100 103 0.0 1.0 0.00 0.00 0.00 31 1007.6
20260903234131 100 103 0.0 1.0 0.00 0.00 0.00 31 1007.6
20260903234033 101 103 0.0 2.0 0.00 0.00 0.00 31 1007.6
20260903233941 100 103 0.0 2.0 0.00 0.00 0.00 31 1007.6
20260903233823 100 103 0.0 2.0 0.00 0.00 0.00 32 1007.6
20260903233726 100 103 0.0 2.0 0.00 0.00 0.00 31 1007.6
20260903233628 100 103 0.0 2.0 0.00 0.00 0.00 33 1007.7
20260903233515 100 103 0.0 2.0 0.00 0.00 0.00 32 1007.6
20260903233441 100 103 1.0 2.0 0.00 0.00 0.00 31 1007.6
20260903233331 100 103 1.0 2.0 0.00 0.00 0.00 33 1007.6
20260903233233 100 103 1.0 2.0 0.00 0.00 0.00 32 1007.7
20260903233203 100 103 1.0 2.0 0.00 0.00 0.00 31 1007.7
20260903233025 100 103 1.0 2.0 0.00 0.00 0.00 32 1007.6
20260903232927 100 103 0.0 2.0 0.00 0.00 0.00 32 1007.6
20260903232817 100 103 0.0 2.0 0.00 0.00 0.00 32 1007.6
20260903232722 100 103 1.0 3.0 0.00 0.00 0.00 32 1007.6
20260903232623 100 103 1.0 3.0 0.00 0.00 0.00 32 1007.6
20260903232534 100 103 1.0 3.0 0.00 0.00 0.00 32 1007.6
20260903232502 100 103 0.0 3.0 0.00 0.00 0.00 32 1007.6
20260903232343 101 103 1.0 3.0 0.00 0.00 0.00 32 1007.7
20260903232224 101 103 1.0 3.0 0.00 0.00 0.00 32 1007.7
20260903232134 101 103 1.0 3.0 0.00 0.00 0.00 32 1007.7
20260903232020 101 103 1.0 3.0 0.00 0.00 0.00 32 1007.7
20260903231922 101 103 0.0 2.0 0.00 0.00 0.00 31 1007.8
20260903231821 101 103 0.0 2.0 0.00 0.00 0.00 31 1007.9
20260903231731 101 103 0.0 2.0 0.00 0.00 0.00 32 1007.9
20260903231634 101 103 1.0 2.0 0.00 0.00 0.00 31 1007.9
20260903231516 101 103 1.0 2.0 0.00 0.00 0.00 31 1007.8
20260903231431 101 103 0.0 2.0 0.00 0.00 0.00 31 1007.8
20260903231333 102 103 0.0 2.0 0.00 0.00 0.00 30 1007.8
20260903231234 102 103 0.0 2.0 0.00 0.00 0.00 30 1007.8
20260903231115 101 103 0.0 2.0 0.00 0.00 0.00 31 1007.8
20260903231026 101 103 0.0 2.0 0.00 0.00 0.00 31 1007.8
20260903230926 101 103 0.0 2.0 0.00 0.00 0.00 31 1007.9
20260903230856 101 103 1.0 2.0 0.00 0.00 0.00 31 1007.9
20260903230718 101 103 1.0 2.0 0.00 0.00 0.00 31 1007.9
20260903230621 101 103 0.0 2.0 0.00 0.00 0.00 31 1008.0
20260903230528 101 103 0.0 2.0 0.00 0.00 0.00 31 1008.1
20260903230431 101 103 0.0 2.0 0.00 0.00 0.00 31 1008.1
20260903230333 100 103 0.0 3.0 0.00 0.00 0.00 31 1008.1
20260903230241 101 103 0.0 6.0 0.00 0.00 0.00 32 1008.1
20260903230126 101 103 0.0 6.0 0.00 0.00 0.00 31 1008.1
20260903230047 101 103 0.0 7.0 0.00 0.00 0.00 30 1008.1
20260903225919 101 103 1.0 7.0 0.00 0.00 0.00 30 1008.2
20260903225821 102 103 1.0 7.0 0.00 0.00 0.00 30 1008.2
20260903225723 102 103 2.0 7.0 0.00 0.00 0.00 30 1008.2
20260903225647 102 103 2.0 7.0 0.00 0.00 0.00 30 1008.2
20260903225555 102 103 2.0 7.0 0.00 0.00 0.00 30 1008.2
20260903225438 102 103 2.0 7.0 0.00 0.00 0.00 30 1008.1
20260903225319 103 104 2.0 7.0 0.00 0.00 0.00 30 1008.2
20260903225227 103 104 3.0 7.0 0.00 0.00 0.00 30 1008.2
20260903225137 103 105 3.0 7.0 0.00 0.00 0.00 30 1008.2
20260903225038 103 107 2.0 5.0 0.00 0.00 0.00 30 1008.1
20260903224920 103 108 1.0 4.0 0.00 0.00 0.00 31 1008.1
20260903224824 102 108 1.0 4.0 0.00 0.00 0.00 30 1008.2
20260903224735 102 109 1.0 3.0 0.00 0.00 0.00 30 1008.2
20260903224657 102 109 1.0 3.0 0.00 0.00 0.00 30 1008.2
20260903224516 102 109 1.0 3.0 0.00 0.00 0.00 31 1008.2
20260903224426 102 109 1.0 3.0 0.00 0.00 0.00 31 1008.2
20260903224326 101 109 1.0 3.0 0.00 0.00 0.00 31 1008.2
20260903224237 101 109 0.0 3.0 0.00 0.00 0.00 31 1008.2
20260903224121 101 109 1.0 3.0 0.00 0.00 0.00 31 1008.2
20260903224023 101 109 1.0 3.0 0.00 0.00 0.00 31 1008.2
20260903223954 101 109 1.0 3.0 0.00 0.00 0.00 32 1008.2
20260903223833 101 109 1.0 3.0 0.00 0.00 0.00 31 1008.3
20260903223741 101 109 0.0 2.0 0.00 0.00 0.00 32 1008.2
20260903223623 101 109 1.0 2.0 0.00 0.00 0.00 32 1008.3
20260903223526 101 109 1.0 2.0 0.00 0.00 0.00 31 1008.2
20260903223419 101 109 1.0 3.0 0.00 0.00 0.00 31 1008.3
20260903223319 101 109 1.0 3.0 0.00 0.00 0.00 31 1008.3
20260903223248 101 109 1.0 3.0 0.00 0.00 0.00 31 1008.2
20260903223127 101 109 1.0 3.0 0.00 0.00 0.00 30 1008.3
20260903223057 102 109 1.0 3.0 0.00 0.00 0.00 30 1008.3
20260903222837 102 109 1.0 3.0 0.00 0.00 0.00 31 1008.2
20260903222717 102 109 1.0 3.0 0.00 0.00 0.00 31 1008.3
20260903222624 102 108 1.0 3.0 0.00 0.00 0.00 30 1008.3
20260903222532 102 109 1.0 2.0 0.00 0.00 0.00 30 1008.3
20260903222433 102 109 1.0 2.0 0.00 0.00 0.00 31 1008.3
20260903222401 102 108 1.0 2.0 0.00 0.00 0.00 31 1008.4
20260903222219 102 109 1.0 2.0 0.00 0.00 0.00 32 1008.4
20260903222120 102 108 1.0 2.0 0.00 0.00 0.00 31 1008.4
20260903222030 102 109 1.0 2.0 0.00 0.00 0.00 31 1008.4
20260903221916 102 109 1.0 4.0 0.00 0.00 0.00 32 1008.4
20260903221819 102 109 1.0 4.0 0.00 0.00 0.00 32 1008.4
20260903221728 102 109 0.0 4.0 0.00 0.00 0.00 31 1008.4
20260903221628 102 109 0.0 4.0 0.00 0.00 0.00 30 1008.4
20260903221536 102 109 0.0 4.0 0.00 0.00 0.00 30 1008.4
20260903221419 103 108 0.0 4.0 0.00 0.00 0.00 31 1008.5
20260903221324 103 109 0.0 4.0 0.00 0.00 0.00 30 1008.6
20260903221255 103 109 1.0 4.0 0.00 0.00 0.00 30 1008.6
20260903221117 102 109 1.0 4.0 0.00 0.00 0.00 33 1008.6
20260903220953 102 109 1.0 4.0 0.00 0.00 0.00 31 1008.6
20260903220834 102 109 1.0 4.0 0.00 0.00 0.00 30 1008.7
20260903220720 102 109 0.0 4.0 0.00 0.00 0.00 30 1008.8
20260903220621 102 109 1.0 4.0 0.00 0.00 0.00 30 1008.8
20260903220532 103 109 1.0 4.0 0.00 0.00 0.00 32 1008.8
20260903220434 102 109 1.0 4.0 0.00 0.00 0.00 32 1008.8
20260903220316 102 109 1.0 4.0 0.00 0.00 0.00 33 1008.9
20260903220245 101 109 1.0 6.0 0.00 0.00 0.00 31 1008.9
20260903220126 101 109 1.0 6.0 0.00 0.00 0.00 31 1008.8
20260903220052 102 109 1.0 6.0 0.00 0.00 0.00 31 1008.8
20260903215942 102 109 1.0 6.0 0.00 0.00 0.00 31 1008.9
20260903215823 102 108 1.0 6.0 0.00 0.00 0.00 31 1008.8
20260903215733 102 109 2.0 6.0 0.00 0.00 0.00 31 1008.8
20260903215656 103 109 1.0 6.0 0.00 0.00 0.00 30 1008.9
20260903215517 103 109 2.0 6.0 0.00 0.00 0.00 31 1009.0
20260903215431 103 109 2.0 6.0 0.00 0.00 0.00 32 1009.0
20260903215332 102 109 2.0 5.0 0.00 0.00 0.00 32 1008.9
20260903215233 101 113 1.0 4.0 0.00 0.00 0.00 31 1008.9
20260903215115 101 114 1.0 4.0 0.00 0.00 0.00 31 1008.9
20260903215044 101 114 1.0 4.0 0.00 0.00 0.00 32 1009.0
20260903214935 101 115 2.0 4.0 0.00 0.00 0.00 31 1009.0
20260903214819 102 114 2.0 4.0 0.00 0.00 0.00 31 1009.0
20260903214721 102 115 1.0 5.0 0.00 0.00 0.00 31 1009.0
20260903214652 102 114 0.0 5.0 0.00 0.00 0.00 30 1009.0
20260903214554 102 114 0.0 5.0 0.00 0.00 0.00 32 1009.0
20260903214415 102 114 0.0 5.0 0.00 0.00 0.00 31 1009.0
20260903214323 102 114 0.0 5.0 0.00 0.00 0.00 33 1009.2
20260903214224 101 114 0.0 5.0 0.00 0.00 0.00 31 1009.2
20260903214135 102 114 1.0 5.0 0.00 0.00 0.00 30 1009.2
20260903214041 102 114 1.0 5.0 0.00 0.00 0.00 30 1009.3
20260903213921 102 114 2.0 5.0 0.00 0.00 0.00 31 1009.4
20260903213831 102 114 2.0 5.0 0.00 0.00 0.00 31 1009.4
20260903213733 102 114 2.0 5.0 0.00 0.00 0.00 31 1009.3
20260903213635 102 113 1.0 4.0 0.00 0.00 0.00 30 1009.3
20260903213523 102 113 2.0 4.0 0.00 0.00 0.00 31 1009.4
20260903213431 101 113 1.0 4.0 0.00 0.00 0.00 32 1009.4
20260903213339 101 113 0.0 2.0 0.00 0.00 0.00 32 1009.4
20260903213221 100 113 0.0 1.0 0.00 0.00 0.00 32 1009.5
20260903213124 99 113 0.0 1.0 0.00 0.00 0.00 32 1009.5
20260903213025 99 113 0.0 1.0 0.00 0.00 0.00 32 1009.4
20260903212956 99 113 0.0 1.0 0.00 0.00 0.00 32 1009.4
20260903212903 99 113 0.0 1.0 0.00 0.00 0.00 32 1009.5
20260903212728 99 113 0.0 3.0 0.00 0.00 0.00 32 1009.5
20260903212651 99 113 0.0 3.0 0.00 0.00 0.00 33 1009.5
20260903212540 99 113 0.0 5.0 0.00 0.00 0.00 33 1009.5
20260903212442 100 113 0.0 5.0 0.00 0.00 0.00 32 1009.5
20260903212322 100 113 0.0 5.0 0.00 0.00 0.00 31 1009.5
20260903212253 100 113 0.0 5.0 0.00 0.00 0.00 32 1009.5
20260903212139 100 113 1.0 5.0 0.00 0.00 0.00 32 1009.5
20260903212026 100 113 1.0 5.0 0.00 0.00 0.00 32 1009.5
20260903211927 100 113 1.0 5.0 0.00 0.00 0.00 32 1009.6
20260903211856 100 113 1.0 5.0 0.00 0.00 0.00 32 1009.6
20260903211718 100 113 1.0 5.0 0.00 0.00 0.00 31 1009.6
20260903211620 101 113 1.0 5.0 0.00 0.00 0.00 31 1009.6
20260903211528 101 113 1.0 5.0 0.00 0.00 0.00 31 1009.6
20260903211452 101 113 2.0 5.0 0.00 0.00 0.00 31 1009.6
20260903211322 101 113 2.0 5.0 0.00 0.00 0.00 31 1009.7
20260903211224 101 113 2.0 5.0 0.00 0.00 0.00 31 1009.6
20260903211126 101 113 1.0 4.0 0.00 0.00 0.00 30 1009.6
20260903211036 102 112 1.0 4.0 0.00 0.00 0.00 31 1009.6
20260903210933 102 112 1.0 7.0 0.00 0.00 0.00 30 1009.7
20260903210816 102 112 1.0 7.0 0.00 0.00 0.00 30 1009.7
20260903210722 103 112 1.0 7.0 0.00 0.00 0.00 30 1009.7
20260903210654 103 111 1.0 7.0 0.00 0.00 0.00 31 1009.7
20260903210542 103 111 1.0 7.0 0.00 0.00 0.00 30 1009.7
20260903210443 103 111 1.0 7.0 0.00 0.00 0.00 31 1009.7
20260903210324 103 111 1.0 7.0 0.00 0.00 0.00 30 1009.8
20260903210234 103 111 2.0 7.0 0.00 0.00 0.00 31 1009.8
20260903210137 102 111 2.0 7.0 0.00 0.00 0.00 30 1009.8
20260903205933 103 115 1.0 5.0 0.00 0.00 0.00 30 1009.9
20260903205833 103 115 1.0 5.0 0.00 0.00 0.00 30 1009.9
20260903205715 103 115 2.0 5.0 0.00 0.00 0.00 30 1009.9
20260903205623 104 115 1.0 5.0 0.00 0.00 0.00 29 1009.9
20260903205524 104 115 1.0 7.0 0.00 0.00 0.00 30 1009.8
20260903205455 104 115 1.0 7.0 0.00 0.00 0.00 29 1009.8
20260903205320 104 115 2.0 7.0 0.00 0.00 0.00 29 1009.8
20260903205249 103 115 1.0 7.0 0.00 0.00 0.00 30 1009.9
20260903205130 103 115 1.0 7.0 0.00 0.00 0.00 30 1009.9
20260903205033 103 115 0.0 7.0 0.00 0.00 0.00 30 1009.9
20260903204915 103 115 2.0 7.0 0.00 0.00 0.00 30 1009.9
20260903204824 103 115 3.0 7.0 0.00 0.00 0.00 30 1009.9
20260903204731 103 114 2.0 7.0 0.00 0.00 0.00 30 1009.9
20260903204700 103 108 2.0 7.0 0.00 0.00 0.00 31 1009.8
20260903204522 103 108 2.0 7.0 0.00 0.00 0.00 31 1009.9
20260903204444 104 109 1.0 7.0 0.00 0.00 0.00 31 1009.9
20260903204352 104 109 1.0 7.0 0.00 0.00 0.00 32 1009.9
20260903204241 103 109 1.0 7.0 0.00 0.00 0.00 31 1009.9
20260903204142 103 109 1.0 7.0 0.00 0.00 0.00 31 1010.1
20260903204051 103 109 2.0 7.0 0.00 0.00 0.00 31 1010.1
20260903203953 103 109 2.0 7.0 0.00 0.00 0.00 32 1010.1
20260903203843 102 113 1.0 7.0 0.00 0.00 0.00 32 1010.1
20260903203743 102 115 1.0 6.0 0.00 0.00 0.00 33 1010.1
20260903203633 101 115 1.0 6.0 0.00 0.00 0.00 33 1010.1
20260903203535 101 115 1.0 6.0 0.00 0.00 0.00 34 1010.2
20260903203417 100 115 1.0 6.0 0.00 0.00 0.00 35 1010.1
20260903203326 100 115 2.0 6.0 0.00 0.00 0.00 32 1010.1
20260903203228 100 115 3.0 6.0 0.00 0.00 0.00 33 1010.1
20260903203141 100 116 2.0 6.0 0.00 0.00 0.00 33 1010.2
20260903203022 100 116 1.0 5.0 0.00 0.00 0.00 32 1010.2
20260903202923 100 116 0.0 5.0 0.00 0.00 0.00 32 1010.2
20260903202854 100 116 0.0 5.0 0.00 0.00 0.00 32 1010.2
20260903202734 100 116 0.0 5.0 0.00 0.00 0.00 32 1010.2
20260903202616 100 116 1.0 5.0 0.00 0.00 0.00 32 1010.3
20260903202545 101 116 1.0 5.0 0.00 0.00 0.00 31 1010.4
20260903202430 101 116 2.0 5.0 0.00 0.00 0.00 32 1010.4
20260903202339 101 116 2.0 5.0 0.00 0.00 0.00 32 1010.4
20260903202220 101 117 1.0 4.0 0.00 0.00 0.00 34 1010.4
20260903202141 100 117 1.0 3.0 0.00 0.00 0.00 34 1010.4
20260903202031 100 117 0.0 3.0 0.00 0.00 0.00 34 1010.4
20260903201934 100 117 0.0 6.0 0.00 0.00 0.00 32 1010.4
20260903201819 100 117 1.0 6.0 0.00 0.00 0.00 34 1010.5
20260903201728 100 117 1.0 6.0 0.00 0.00 0.00 36 1010.5
20260903201632 100 117 1.0 6.0 0.00 0.00 0.00 34 1010.5
20260903201534 99 117 0.0 6.0 0.00 0.00 0.00 32 1010.5
20260903201442 100 117 1.0 6.0 0.00 0.00 0.00 33 1010.6
20260903201324 100 117 1.0 6.0 0.00 0.00 0.00 32 1010.6
20260903201231 100 117 1.0 8.0 0.00 0.00 0.00 32 1010.6
20260903201159 101 117 2.0 8.0 0.00 0.00 0.00 32 1010.6
20260903201018 101 117 2.0 11.0 0.00 0.00 0.00 32 1010.6
20260903200948 101 117 2.0 11.0 0.00 0.00 0.00 32 1010.6
20260903200830 101 117 2.0 11.0 0.00 0.00 0.00 32 1010.6
20260903200731 101 118 1.0 11.0 0.00 0.00 0.00 33 1010.6
20260903200640 100 118 1.0 11.0 0.00 0.00 0.00 33 1010.6
20260903200525 100 118 2.0 11.0 0.00 0.00 0.00 33 1010.6
20260903200426 100 118 2.0 11.0 0.00 0.00 0.00 33 1010.7
20260903200334 100 118 3.0 11.0 0.00 0.00 0.00 33 1010.7
20260903200217 100 118 4.0 11.0 0.00 0.00 0.00 32 1010.6
20260903200119 101 125 3.0 7.0 0.00 0.00 0.00 32 1010.6
20260903200031 101 125 2.0 5.0 0.00 0.00 0.00 33 1010.6
20260903195933 100 125 2.0 5.0 0.00 0.00 0.00 33 1010.6
20260903195815 100 125 2.0 5.0 0.00 0.00 0.00 33 1010.7
20260903195718 101 125 1.0 5.0 0.00 0.00 0.00 32 1010.7
20260903195627 101 125 1.0 5.0 0.00 0.00 0.00 34 1010.7
20260903195548 101 125 2.0 5.0 0.00 0.00 0.00 33 1010.8
20260903195436 100 125 3.0 5.0 0.00 0.00 0.00 33 1010.8
20260903195322 100 125 2.0 5.0 0.00 0.00 0.00 34 1010.7
20260903195223 100 126 1.0 4.0 0.00 0.00 0.00 34 1010.7
20260903195124 100 126 1.0 4.0 0.00 0.00 0.00 33 1010.7
20260903195034 100 126 1.0 4.0 0.00 0.00 0.00 34 1010.7
20260903194917 100 126 2.0 4.0 0.00 0.00 0.00 33 1010.7
20260903194820 100 126 1.0 4.0 0.00 0.00 0.00 34 1010.8
20260903194725 100 126 2.0 4.0 0.00 0.00 0.00 35 1010.8
20260903194655 99 126 2.0 5.0 0.00 0.00 0.00 34 1010.8
20260903194516 99 126 2.0 5.0 0.00 0.00 0.00 33 1010.8
20260903194418 99 126 2.0 5.0 0.00 0.00 0.00 34 1010.8
20260903194328 99 126 1.0 5.0 0.00 0.00 0.00 34 1010.8
20260903194230 99 126 1.0 5.0 0.00 0.00 0.00 35 1010.8
20260903194138 99 126 0.0 5.0 0.00 0.00 0.00 34 1010.8
20260903194025 99 126 1.0 6.0 0.00 0.00 0.00 34 1010.8
20260903193926 99 126 2.0 6.0 0.00 0.00 0.00 35 1010.8
20260903193836 98 126 3.0 6.0 0.00 0.00 0.00 35 1010.8
20260903193718 98 125 2.0 6.0 0.00 0.00 0.00 35 1010.8
20260903193621 98 125 1.0 6.0 0.00 0.00 0.00 35 1010.8
20260903193522 99 125 2.0 6.0 0.00 0.00 0.00 34 1011.0
20260903193435 99 125 3.0 6.0 0.00 0.00 0.00 33 1011.0
20260903193317 100 125 3.0 6.0 0.00 0.00 0.00 33 1011.0
20260903193219 100 125 3.0 6.0 0.00 0.00 0.00 34 1010.9
20260903193149 99 124 2.0 5.0 0.00 0.00 0.00 34 1011.0
20260903193030 99 124 1.0 5.0 0.00 0.00 0.00 35 1011.0
20260903192938 99 124 0.0 5.0 0.00 0.00 0.00 34 1011.0
20260903192841 99 124 1.0 5.0 0.00 0.00 0.00 34 1011.1
20260903192734 99 124 2.0 5.0 0.00 0.00 0.00 34 1011.1
20260903192636 99 124 2.0 6.0 0.00 0.00 0.00 34 1011.1
20260903192538 99 124 1.0 6.0 0.00 0.00 0.00 33 1011.1
20260903192426 100 124 2.0 6.0 0.00 0.00 0.00 33 1011.2
20260903192328 100 124 2.0 6.0 0.00 0.00 0.00 33 1011.2
20260903192230 100 124 1.0 6.0 0.00 0.00 0.00 33 1011.2
20260903192142 100 124 1.0 7.0 0.00 0.00 0.00 33 1011.2
20260903192025 99 124 1.0 7.0 0.00 0.00 0.00 34 1011.2
20260903191923 99 124 2.0 7.0 0.00 0.00 0.00 36 1011.2
20260903191832 98 124 2.0 7.0 0.00 0.00 0.00 34 1011.2
20260903191735 98 124 1.0 7.0 0.00 0.00 0.00 34 1011.3
20260903191616 98 124 1.0 7.0 0.00 0.00 0.00 34 1011.3
20260903191524 99 124 1.0 7.0 0.00 0.00 0.00 34 1011.4
20260903191430 99 124 3.0 7.0 0.00 0.00 0.00 34 1011.4
20260903191339 99 124 3.0 7.0 0.00 0.00 0.00 34 1011.4
20260903191219 99 117 3.0 5.0 0.00 0.00 0.00 35 1011.4
20260903191122 99 116 2.0 5.0 0.00 0.00 0.00 34 1011.6
20260903191023 99 112 1.0 5.0 0.00 0.00 0.00 34 1011.6
20260903190933 99 112 2.0 5.0 0.00 0.00 0.00 34 1011.6
20260903190820 99 111 2.0 12.0 0.00 0.00 0.00 34 1011.6
20260903190723 99 110 2.0 12.0 0.00 0.00 0.00 34 1011.6
20260903190624 99 108 2.0 12.0 0.00 0.00 0.00 34 1011.6
20260903190534 99 108 2.0 12.0 0.00 0.00 0.00 34 1011.6
20260903190433 99 105 1.0 12.0 0.00 0.00 0.00 34 1011.6
20260903190315 100 105 1.0 12.0 0.00 0.00 0.00 33 1011.6
20260903190249 100 105 1.0 12.0 0.00 0.00 0.00 33 1011.6
20260903190130 100 105 3.0 12.0 0.00 0.00 0.00 34 1011.6
20260903190030 100 105 3.0 12.0 0.00 0.00 0.00 35 1011.6
20260903185917 100 109 2.0 10.0 0.00 0.00 0.00 34 1011.7
20260903185845 100 110 2.0 10.0 0.00 0.00 0.00 34 1011.6
20260903185755 100 109 2.0 10.0 0.00 0.00 0.00 34 1011.6
20260903185617 100 108 3.0 10.0 0.00 0.00 0.00 35 1011.7
20260903185524 99 108 2.0 10.0 0.00 0.00 0.00 35 1011.6
20260903185425 98 107 2.0 9.0 0.00 0.00 0.00 35 1011.7
20260903185335 98 105 1.0 5.0 0.00 0.00 0.00 35 1011.7
20260903185237 99 105 1.0 5.0 0.00 0.00 0.00 35 1011.8
20260903185118 99 105 1.0 3.0 0.00 0.00 0.00 34 1011.8
20260903185028 100 105 1.0 3.0 0.00 0.00 0.00 34 1011.8
20260903184929 100 105 0.0 2.0 0.00 0.00 0.00 34 1011.8
20260903184835 101 105 0.0 2.0 0.00 0.00 0.00 35 1011.8
20260903184717 101 105 0.0 2.0 0.00 0.00 0.00 34 1011.8
20260903184627 101 105 0.0 3.0 0.00 0.00 0.00 33 1011.8
20260903184528 101 105 1.0 3.0 0.00 0.00 0.00 34 1011.8
20260903184430 101 105 1.0 6.0 0.00 0.00 0.00 35 1011.8
20260903184340 101 105 1.0 6.0 0.00 0.00 0.00 35 1011.9
20260903184225 100 105 1.0 6.0 0.00 0.00 0.00 37 1011.9
20260903184134 100 107 1.0 6.0 0.00 0.00 0.00 36 1011.9
20260903184035 100 107 1.0 6.0 0.00 0.00 0.00 34 1011.9
20260903183916 100 108 1.0 6.0 0.00 0.00 0.00 34 1012.0
20260903183818 101 108 1.0 6.0 0.00 0.00 0.00 35 1012.0
20260903183726 101 108 2.0 6.0 0.00 0.00 0.00 34 1012.0
20260903183634 102 109 2.0 6.0 0.00 0.00 0.00 33 1012.0
20260903183516 102 108 2.0 6.0 0.00 0.00 0.00 35 1012.0
20260903183425 101 108 2.0 6.0 0.00 0.00 0.00 36 1012.0
20260903183327 100 110 1.0 5.0 0.00 0.00 0.00 36 1012.0
20260903183228 100 110 1.0 5.0 0.00 0.00 0.00 36 1012.1
20260903183137 100 111 0.0 5.0 0.00 0.00 0.00 35 1012.1
20260903183023 100 111 0.0 5.0 0.00 0.00 0.00 35 1012.2
20260903182944 101 113 1.0 5.0 0.00 0.00 0.00 35 1012.2
20260903182834 101 113 1.0 5.0 0.00 0.00 0.00 35 1012.2
20260903182756 101 114 2.0 5.0 0.00 0.00 0.00 36 1012.1
20260903182643 101 114 2.0 5.0 0.00 0.00 0.00 36 1012.2
20260903182524 100 116 2.0 5.0 0.00 0.00 0.00 36 1012.2
20260903182427 99 119 2.0 5.0 0.00 0.00 0.00 37 1012.2
20260903182339 99 122 2.0 5.0 0.00 0.00 0.00 37 1012.2
20260903182222 98 124 1.0 4.0 0.00 0.00 0.00 36 1012.3
20260903182124 98 124 1.0 3.0 0.00 0.00 0.00 36 1012.3
20260903182033 98 124 1.0 3.0 0.00 0.00 0.00 36 1012.3
20260903181934 99 124 1.0 3.0 0.00 0.00 0.00 36 1012.3
20260903181816 99 124 1.0 3.0 0.00 0.00 0.00 37 1012.3
20260903181730 99 124 1.0 3.0 0.00 0.00 0.00 38 1012.3
20260903181633 99 124 0.0 2.0 0.00 0.00 0.00 36 1012.4
20260903181602 99 124 0.0 2.0 0.00 0.00 0.00 36 1012.4
20260903181444 100 124 0.0 2.0 0.00 0.00 0.00 34 1012.4
20260903181325 100 124 0.0 2.0 0.00 0.00 0.00 38 1012.4
20260903181234 100 124 1.0 3.0 0.00 0.00 0.00 39 1012.4
20260903181117 99 124 1.0 8.0 0.00 0.00 0.00 38 1012.4
20260903181023 98 124 1.0 8.0 0.00 0.00 0.00 37 1012.5
20260903180925 98 124 0.0 8.0 0.00 0.00 0.00 39 1012.5
20260903180834 97 124 0.0 8.0 0.00 0.00 0.00 40 1012.5
20260903180716 96 124 0.0 8.0 0.00 0.00 0.00 38 1012.5
20260903180617 97 124 1.0 8.0 0.00 0.00 0.00 37 1012.6
20260903180519 97 124 1.0 8.0 0.00 0.00 0.00 38 1012.5
20260903180433 97 124 2.0 8.0 0.00 0.00 0.00 37 1012.5
20260903180315 97 124 2.0 8.0 0.00 0.00 0.00 37 1012.7
20260903180217 97 124 2.0 4.0 0.00 0.00 0.00 39 1012.7
20260903180118 96 124 1.0 4.0 0.00 0.00 0.00 39 1012.7
20260903180039 96 124 1.0 4.0 0.00 0.00 0.00 38 1012.7
20260903175929 96 124 2.0 4.0 0.00 0.00 0.00 38 1012.7
20260903175841 96 124 1.0 4.0 0.00 0.00 0.00 38 1012.7
20260903175723 96 124 1.0 4.0 0.00 0.00 0.00 38 1012.7
20260903175624 96 124 1.0 4.0 0.00 0.00 0.00 38 1012.8
20260903175532 96 124 1.0 4.0 0.00 0.00 0.00 38 1012.8
20260903175441 96 124 0.0 4.0 0.00 0.00 0.00 38 1012.9
20260903175321 96 124 0.0 4.0 0.00 0.00 0.00 37 1012.9
20260903175223 96 124 1.0 4.0 0.00 0.00 0.00 37 1012.9
20260903175136 97 124 1.0 4.0 0.00 0.00 0.00 38 1012.9
20260903175033 96 124 1.0 4.0 0.00 0.00 0.00 39 1012.8
20260903174941 96 124 1.0 4.0 0.00 0.00 0.00 39 1012.9
20260903174823 95 124 2.0 4.0 0.00 0.00 0.00 38 1013.0
20260903174725 96 124 2.0 7.0 0.00 0.00 0.00 39 1013.0
20260903174655 96 124 2.0 7.0 0.00 0.00 0.00 39 1013.0
20260903174555 96 124 2.0 7.0 0.00 0.00 0.00 38 1012.9
20260903174424 96 124 2.0 7.0 0.00 0.00 0.00 38 1012.8
20260903174346 96 124 2.0 7.0 0.00 0.00 0.00 38 1012.9
20260903174233 96 124 2.0 7.0 0.00 0.00 0.00 38 1012.9
20260903174141 96 124 2.0 7.0 0.00 0.00 0.00 38 1012.9
20260903174020 96 124 2.0 7.0 0.00 0.00 0.00 39 1012.9
20260903173921 96 124 3.0 7.0 0.00 0.00 0.00 38 1012.9
20260903173831 96 122 2.0 4.0 0.00 0.00 0.00 39 1012.9
20260903173717 95 120 1.0 4.0 0.00 0.00 0.00 38 1013.0
20260903173619 96 120 1.0 5.0 0.00 0.00 0.00 38 1013.0
20260903173527 96 120 1.0 5.0 0.00 0.00 0.00 38 1013.0
20260903173448 96 120 1.0 5.0 0.00 0.00 0.00 37 1013.0
20260903173335 96 120 2.0 5.0 0.00 0.00 0.00 38 1013.0
20260903173235 95 120 1.0 5.0 0.00 0.00 0.00 38 1013.0
20260903173144 95 120 2.0 7.0 0.00 0.00 0.00 38 1013.0
20260903173023 95 120 2.0 7.0 0.00 0.00 0.00 38 1013.0
20260903172929 95 120 2.0 7.0 0.00 0.00 0.00 38 1013.0
20260903172838 95 120 2.0 7.0 0.00 0.00 0.00 39 1013.0
20260903172720 95 120 1.0 7.0 0.00 0.00 0.00 40 1012.9
20260903172620 95 120 1.0 7.0 0.00 0.00 0.00 40 1012.9
20260903172522 95 120 1.0 7.0 0.00 0.00 0.00 40 1013.0
20260903172432 95 120 2.0 7.0 0.00 0.00 0.00 39 1013.0
20260903172315 95 120 3.0 7.0 0.00 0.00 0.00 39 1012.9
20260903172222 95 121 3.0 7.0 0.00 0.00 0.00 39 1013.0
20260903172123 95 120 2.0 6.0 0.00 0.00 0.00 40 1012.9
20260903172033 95 120 2.0 5.0 0.00 0.00 0.00 40 1012.9
20260903171934 95 120 1.0 5.0 0.00 0.00 0.00 39 1012.8
20260903171835 95 120 2.0 5.0 0.00 0.00 0.00 39 1012.9
20260903171716 95 120 2.0 5.0 0.00 0.00 0.00 40 1012.8
20260903171630 95 119 2.0 5.0 0.00 0.00 0.00 40 1012.8
20260903171533 95 119 1.0 5.0 0.00 0.00 0.00 40 1012.9
20260903171501 95 119 2.0 6.0 0.00 0.00 0.00 41 1012.8
20260903171321 95 119 2.0 6.0 0.00 0.00 0.00 40 1012.9
20260903171221 95 118 2.0 6.0 0.00 0.00 0.00 41 1012.8
20260903171122 95 118 2.0 6.0 0.00 0.00 0.00 41 1012.9
20260903171037 95 118 1.0 6.0 0.00 0.00 0.00 41 1012.9
20260903170919 95 118 2.0 6.0 0.00 0.00 0.00 41 1012.8
20260903170822 95 118 3.0 6.0 0.00 0.00 0.00 40 1012.9
20260903170722 95 118 3.0 6.0 0.00 0.00 0.00 40 1012.8
20260903170632 95 118 3.0 6.0 0.00 0.00 0.00 40 1012.8
20260903170539 95 112 2.0 4.0 0.00 0.00 0.00 40 1012.9
20260903170423 95 110 1.0 4.0 0.00 0.00 0.00 41 1012.9
20260903170346 95 110 1.0 4.0 0.00 0.00 0.00 40 1012.9
20260903170234 95 110 2.0 4.0 0.00 0.00 0.00 40 1012.9
20260903170134 95 110 2.0 4.0 0.00 0.00 0.00 40 1012.9
20260903170056 96 110 2.0 5.0 0.00 0.00 0.00 40 1012.9
20260903165924 96 110 1.0 5.0 0.00 0.00 0.00 41 1012.9
20260903165825 96 110 1.0 5.0 0.00 0.00 0.00 41 1013.0
20260903165759 97 110 0.0 5.0 0.00 0.00 0.00 42 1013.0
20260903165619 97 110 0.0 5.0 0.00 0.00 0.00 43 1013.0
20260903165521 96 110 0.0 5.0 0.00 0.00 0.00 43 1013.0
20260903165423 96 110 1.0 7.0 0.00 0.00 0.00 43 1013.0
20260903165333 95 110 1.0 7.0 0.00 0.00 0.00 43 1013.0
20260903165235 95 110 2.0 7.0 0.00 0.00 0.00 43 1013.0
20260903165121 95 110 2.0 7.0 0.00 0.00 0.00 43 1013.1
20260903165022 94 110 2.0 7.0 0.00 0.00 0.00 43 1013.1
20260903164932 94 110 2.0 7.0 0.00 0.00 0.00 43 1013.1
20260903164853 94 110 2.0 7.0 0.00 0.00 0.00 43 1013.1
20260903164739 94 110 2.0 7.0 0.00 0.00 0.00 42 1013.1
20260903164622 94 111 2.0 11.0 0.00 0.00 0.00 44 1013.1
20260903164543 94 111 3.0 11.0 0.00 0.00 0.00 44 1013.1
20260903164457 94 112 2.0 11.0 0.00 0.00 0.00 43 1013.1
20260903164323 94 111 1.0 11.0 0.00 0.00 0.00 43 1013.0
20260903164243 94 116 1.0 11.0 0.00 0.00 0.00 44 1013.1
20260903164133 94 116 2.0 11.0 0.00 0.00 0.00 45 1013.1
20260903164055 94 116 2.0 11.0 0.00 0.00 0.00 44 1013.1
20260903163916 94 117 3.0 11.0 0.00 0.00 0.00 46 1013.0
20260903163845 94 117 3.0 11.0 0.00 0.00 0.00 46 1013.0
20260903163627 93 127 0.0 7.0 0.00 0.00 0.00 45 1012.9
20260903163529 93 127 1.0 7.0 0.00 0.00 0.00 44 1012.9
20260903163430 93 127 1.0 7.0 0.00 0.00 0.00 45 1012.9
20260903163337 93 127 2.0 7.0 0.00 0.00 0.00 44 1012.9
20260903163219 93 127 3.0 7.0 0.00 0.00 0.00 44 1013.0
20260903163121 93 127 2.0 7.0 0.00 0.00 0.00 44 1013.0
20260903163024 93 127 2.0 7.0 0.00 0.00 0.00 45 1013.0
20260903162934 93 127 3.0 7.0 0.00 0.00 0.00 44 1013.0
20260903162855 93 127 2.0 7.0 0.00 0.00 0.00 44 1013.1
20260903162716 93 130 1.0 6.0 0.00 0.00 0.00 45 1013.0
20260903162624 93 130 1.0 6.0 0.00 0.00 0.00 44 1013.0
20260903162535 93 130 2.0 7.0 0.00 0.00 0.00 44 1013.0
20260903162419 93 130 3.0 7.0 0.00 0.00 0.00 45 1013.1
20260903162319 93 131 2.0 7.0 0.00 0.00 0.00 46 1013.0
20260903162220 93 131 2.0 7.0 0.00 0.00 0.00 47 1013.0
20260903162149 92 131 2.0 7.0 0.00 0.00 0.00 46 1013.0
20260903162028 92 131 3.0 7.0 0.00 0.00 0.00 45 1013.0
20260903161934 92 131 3.0 7.0 0.00 0.00 0.00 45 1013.0
20260903161816 93 131 3.0 7.0 0.00 0.00 0.00 44 1013.0
20260903161722 93 131 2.0 7.0 0.00 0.00 0.00 45 1013.0
20260903161632 93 132 2.0 7.0 0.00 0.00 0.00 45 1013.0
20260903161533 93 132 2.0 7.0 0.00 0.00 0.00 46 1013.1
20260903161414 93 132 2.0 7.0 0.00 0.00 0.00 47 1013.1
20260903161344 93 132 2.0 7.0 0.00 0.00 0.00 47 1013.1
20260903161223 93 132 3.0 7.0 0.00 0.00 0.00 46 1013.2
20260903161125 93 134 3.0 7.0 0.00 0.00 0.00 47 1013.2
20260903161040 93 135 3.0 7.0 0.00 0.00 0.00 46 1013.2
20260903160940 93 136 3.0 7.0 0.00 0.00 0.00 45 1013.1
20260903160829 93 136 3.0 7.0 0.00 0.00 0.00 46 1013.1
20260903160748 93 136 3.0 7.0 0.00 0.00 0.00 46 1013.1
20260903160636 93 139 1.0 7.0 0.00 0.00 0.00 46 1013.1
20260903160517 93 139 1.0 7.0 0.00 0.00 0.00 47 1013.1
20260903160446 93 139 2.0 7.0 0.00 0.00 0.00 46 1013.0
20260903160330 93 139 2.0 7.0 0.00 0.00 0.00 48 1013.0
20260903160232 92 139 3.0 7.0 0.00 0.00 0.00 47 1013.1
20260903160141 92 140 4.0 7.0 0.00 0.00 0.00 48 1013.0
20260903160032 92 140 4.0 7.0 0.00 0.00 0.00 47 1013.0
20260903155928 91 149 4.0 7.0 0.00 0.00 0.00 47 1013.0
20260903155830 91 149 3.0 7.0 0.00 0.00 0.00 47 1013.0
20260903155740 91 149 3.0 7.0 0.00 0.00 0.00 47 1013.0
20260903155625 91 149 4.0 7.0 0.00 0.00 0.00 47 1013.1
20260903155526 91 150 5.0 7.0 0.00 0.00 0.00 47 1013.1
20260903155454 91 155 4.0 7.0 0.00 0.00 0.00 47 1013.1
20260903155332 91 159 3.0 7.0 0.00 0.00 0.00 47 1013.1
20260903155233 91 162 3.0 6.0 0.00 0.00 0.00 47 1013.1
20260903155142 91 164 2.0 6.0 0.00 0.00 0.00 47 1013.0
20260903155020 91 169 3.0 6.0 0.00 0.00 0.00 47 1013.1
20260903154933 91 170 2.0 5.0 0.00 0.00 0.00 47 1013.1
20260903154903 91 275 1.0 4.0 0.00 0.00 0.00 48 1013.1
20260903154725 91 275 0.0 4.0 0.00 0.00 0.00 48 1013.1
20260903154606 91 275 1.0 4.0 0.00 0.00 0.00 47 1013.1
20260903154424 91 275 2.0 4.0 0.00 0.00 0.00 47 1013.2
20260903154343 91 275 1.0 4.0 0.00 0.00 0.00 47 1013.2
20260903154235 91 275 1.0 3.0 0.00 0.00 0.00 48 1013.2
20260903154117 91 275 1.0 3.0 0.00 0.00 0.00 50 1013.2
20260903154017 91 275 1.0 3.0 0.00 0.00 0.00 49 1013.2
20260903153920 90 275 1.0 3.0 0.00 0.00 0.00 49 1013.3
20260903153830 90 275 1.0 3.0 0.00 0.00 0.00 50 1013.3
20260903153733 90 275 1.0 3.0 0.00 0.00 0.00 50 1013.2
20260903153619 90 275 1.0 3.0 0.00 0.00 0.00 50 1013.3
20260903153547 91 275 1.0 3.0 0.00 0.00 0.00 51 1013.2
20260903153450 90 275 1.0 3.0 0.00 0.00 0.00 50 1013.2
20260903153257 91 275 1.0 3.0 0.00 0.00 0.00 51 1013.3
20260903153155 91 275 1.0 3.0 0.00 0.00 0.00 52 1013.2
20260903153026 90 275 1.0 3.0 0.00 0.00 0.00 51 1013.3
20260903152927 90 275 0.0 3.0 0.00 0.00 0.00 52 1013.4
20260903152830 90 275 1.0 3.0 0.00 0.00 0.00 51 1013.4
20260903152740 90 275 1.0 4.0 0.00 0.00 0.00 52 1013.4
20260903152622 90 275 0.0 4.0 0.00 0.00 0.00 52 1013.3
20260903152544 90 275 0.0 4.0 0.00 0.00 0.00 52 1013.4
20260903152433 90 275 0.0 4.0 0.00 0.00 0.00 53 1013.4
20260903152334 89 275 0.0 4.0 0.00 0.00 0.00 53 1013.3
20260903152306 89 275 0.0 4.0 0.00 0.00 0.00 53 1013.3
20260903152126 89 275 0.0 4.0 0.00 0.00 0.00 53 1013.3
20260903152027 89 275 1.0 4.0 0.00 0.00 0.00 54 1013.2
20260903151957 89 275 1.0 4.0 0.00 0.00 0.00 55 1013.2
20260903151819 88 275 0.0 3.0 0.00 0.00 0.00 54 1013.2
20260903151740 88 275 0.0 1.0 0.00 0.00 0.00 54 1013.3
20260903151627 88 275 0.0 1.0 0.00 0.00 0.00 54 1013.3
20260903151527 88 275 0.0 3.0 0.00 0.00 0.00 54 1013.3
20260903151440 88 275 0.0 3.0 0.00 0.00 0.00 54 1013.3
20260903151331 88 275 0.0 3.0 0.00 0.00 0.00 55 1013.3
20260903151231 88 275 0.0 3.0 0.00 0.00 0.00 55 1013.4
20260903151139 88 275 0.0 3.0 0.00 0.00 0.00 55 1013.3
20260903151022 88 275 0.0 3.0 0.00 0.00 0.00 55 1013.3
20260903150923 88 275 1.0 3.0 0.00 0.00 0.00 55 1013.3
20260903150830 88 275 1.0 3.0 0.00 0.00 0.00 55 1013.3
20260903150739 88 275 1.0 3.0 0.00 0.00 0.00 54 1013.3
20260903150621 88 275 1.0 3.0 0.00 0.00 0.00 55 1013.3
20260903150523 88 275 1.0 3.0 0.00 0.00 0.00 55 1013.3
20260903150454 88 275 1.0 3.0 0.00 0.00 0.00 55 1013.3
20260903150354 88 275 1.0 4.0 0.00 0.00 0.00 55 1013.2
20260903150242 88 275 0.0 4.0 0.00 0.00 0.00 55 1013.2
20260903150123 88 275 0.0 4.0 0.00 0.00 0.00 55 1013.2
20260903150045 88 275 0.0 4.0 0.00 0.00 0.00 55 1013.2
20260903145916 88 275 0.0 4.0 0.00 0.00 0.00 55 1013.3
20260903145839 88 275 0.0 4.0 0.00 0.00 0.00 55 1013.3
20260903145727 88 275 1.0 4.0 0.00 0.00 0.00 55 1013.3
20260903145648 88 275 1.0 4.0 0.00 0.00 0.00 56 1013.4
20260903145538 88 275 1.0 4.0 0.00 0.00 0.00 55 1013.4
20260903145423 88 275 0.0 5.0 0.00 0.00 0.00 55 1013.4
20260903145325 88 275 1.0 5.0 0.00 0.00 0.00 56 1013.4
20260903145225 88 275 2.0 5.0 0.00 0.00 0.00 56 1013.4
20260903145155 87 275 2.0 5.0 0.00 0.00 0.00 56 1013.4
20260903145103 87 275 2.0 5.0 0.00 0.00 0.00 56 1013.3
20260903144923 87 275 1.0 5.0 0.00 0.00 0.00 56 1013.3
20260903144827 87 275 1.0 5.0 0.00 0.00 0.00 56 1013.3
20260903144737 87 275 2.0 5.0 0.00 0.00 0.00 56 1013.3
20260903144619 87 275 2.0 5.0 0.00 0.00 0.00 56 1013.3
20260903144540 87 275 2.0 5.0 0.00 0.00 0.00 56 1013.2
20260903144430 87 275 1.0 4.0 0.00 0.00 0.00 56 1013.2
20260903144330 87 275 1.0 4.0 0.00 0.00 0.00 56 1013.2
20260903144231 87 275 1.0 4.0 0.00 0.00 0.00 56 1013.1
20260903144145 87 275 1.0 4.0 0.00 0.00 0.00 56 1013.2
20260903144025 87 275 1.0 4.0 0.00 0.00 0.00 56 1013.2
20260903143925 87 275 2.0 4.0 0.00 0.00 0.00 56 1013.2
20260903143855 87 275 1.0 4.0 0.00 0.00 0.00 56 1013.2
20260903143733 87 275 0.0 4.0 0.00 0.00 0.00 56 1013.2
20260903143642 87 275 1.0 4.0 0.00 0.00 0.00 56 1013.2
20260903143542 87 275 1.0 3.0 0.00 0.00 0.00 57 1013.3
20260903143451 87 275 0.0 1.0 0.00 0.00 0.00 57 1013.3
20260903143403 87 275 0.0 1.0 0.00 0.00 0.00 57 1013.3
20260903143224 87 275 0.0 1.0 0.00 0.00 0.00 57 1013.4
20260903143155 87 275 0.0 1.0 0.00 0.00 0.00 57 1013.4
20260903143036 87 275 0.0 3.0 0.00 0.00 0.00 57 1013.2
20260903142944 86 275 0.0 3.0 0.00 0.00 0.00 57 1013.4
20260903142844 86 275 0.0 4.0 0.00 0.00 0.00 57 1013.3
20260903142724 86 275 0.0 4.0 0.00 0.00 0.00 57 1013.3
20260903142637 86 275 0.0 4.0 0.00 0.00 0.00 57 1013.3
20260903142520 86 275 0.0 4.0 0.00 0.00 0.00 57 1013.2
20260903142423 86 275 0.0 4.0 0.00 0.00 0.00 57 1013.2
20260903142325 86 275 0.0 4.0 0.00 0.00 0.00 58 1013.1
20260903142236 86 275 1.0 4.0 0.00 0.00 0.00 57 1013.1
20260903142119 86 275 2.0 4.0 0.00 0.00 0.00 58 1013.2
20260903142024 86 275 1.0 3.0 0.00 0.00 0.00 58 1013.2
20260903141925 86 275 0.0 3.0 0.00 0.00 0.00 58 1013.2
20260903141835 86 275 0.0 2.0 0.00 0.00 0.00 58 1013.2
20260903141737 86 275 0.0 2.0 0.00 0.00 0.00 58 1013.3
20260903141645 86 275 1.0 2.0 0.00 0.00 0.00 58 1013.3
20260903141522 86 275 0.0 2.0 0.00 0.00 0.00 59 1013.2
20260903141432 86 275 0.0 2.0 0.00 0.00 0.00 59 1013.2
20260903141319 85 275 0.0 2.0 0.00 0.00 0.00 59 1013.3
20260903141220 85 275 0.0 2.0 0.00 0.00 0.00 59 1013.3
20260903141131 85 275 0.0 2.0 0.00 0.00 0.00 59 1013.3
20260903141033 85 275 0.0 2.0 0.00 0.00 0.00 60 1013.3
20260903141003 85 275 0.0 1.0 0.00 0.00 0.00 60 1013.2
20260903140824 85 275 0.0 1.0 0.00 0.00 0.00 60 1013.2
20260903140731 85 275 0.0 1.0 0.00 0.00 0.00 60 1013.2
20260903140633 85 275 0.0 1.0 0.00 0.00 0.00 60 1013.2
20260903140542 85 275 0.0 1.0 0.00 0.00 0.00 60 1013.0
20260903140423 84 275 0.0 1.0 0.00 0.00 0.00 60 1013.1
20260903140325 84 275 0.0 1.0 0.00 0.00 0.00 60 1013.1
20260903140236 84 275 0.0 1.0 0.00 0.00 0.00 60 1013.1
20260903140116 84 360 0.0 1.0 0.00 0.00 0.00 61 1013.1
20260903140041 84 360 0.0 1.0 0.00 0.00 0.00 61 1013.1
20260903135930 84 274 0.0 1.0 0.00 0.00 0.00 61 1013.0
20260903135832 84 274 0.0 1.0 0.00 0.00 0.00 61 1013.0
20260903135741 84 274 0.0 1.0 0.00 0.00 0.00 61 1012.9
20260903135623 84 274 0.0 1.0 0.00 0.00 0.00 61 1012.9
20260903135524 84 266 0.0 1.0 0.00 0.00 0.00 61 1012.8
20260903135430 84 264 0.0 0.0 0.00 0.00 0.00 61 1012.8
20260903135338 84 264 0.0 0.0 0.00 0.00 0.00 61 1012.8
20260903135220 84 263 0.0 0.0 0.00 0.00 0.00 61 1012.8
20260903135122 84 263 0.0 0.0 0.00 0.00 0.00 61 1012.9
20260903135032 84 263 0.0 0.0 0.00 0.00 0.00 60 1012.9
20260903134954 84 360 0.0 0.0 0.00 0.00 0.00 60 1012.7
20260903134819 84 360 0.0 0.0 0.00 0.00 0.00 60 1012.8
20260903134725 84 264 0.0 0.0 0.00 0.00 0.00 60 1012.8
20260903134636 84 264 0.0 0.0 0.00 0.00 0.00 60 1012.8
20260903134518 84 263 0.0 1.0 0.00 0.00 0.00 60 1012.8
20260903134417 84 360 0.0 1.0 0.00 0.00 0.00 60 1012.7
20260903134319 84 360 0.0 4.0 0.00 0.00 0.00 60 1012.8
20260903134230 84 360 0.0 4.0 0.00 0.00 0.00 60 1012.8
20260903134155 84 360 0.0 4.0 0.00 0.00 0.00 60 1012.8
20260903134042 84 360 0.0 4.0 0.00 0.00 0.00 60 1012.7
20260903133923 84 360 0.0 4.0 0.00 0.00 0.00 60 1012.7
20260903133844 84 360 0.0 4.0 0.00 0.00 0.00 60 1012.6
20260903133733 84 360 0.0 4.0 0.00 0.00 0.00 60 1012.6
20260903133653 84 360 1.0 4.0 0.00 0.00 0.00 60 1012.7
20260903133622 84 360 1.0 4.0 0.00 0.00 0.00 60 1012.7
20260903133508 84 360 0.0 4.0 0.00 0.00 0.00 60 1012.6
20260903133347 84 360 1.0 4.0 0.00 0.00 0.00 60 1012.6
20260903133219 84 263 1.0 4.0 0.00 0.00 0.00 60 1012.6
20260903133121 84 263 1.0 4.0 0.00 0.00 0.00 60 1012.6
20260903133022 84 264 1.0 4.0 0.00 0.00 0.00 60 1012.6
20260903132933 84 264 1.0 4.0 0.00 0.00 0.00 60 1012.6
20260903132815 84 264 1.0 4.0 0.00 0.00 0.00 60 1012.4
20260903132720 84 264 1.0 4.0 0.00 0.00 0.00 60 1012.4
20260903132651 84 264 1.0 4.0 0.00 0.00 0.00 60 1012.4
20260903132531 84 264 1.0 4.0 0.00 0.00 0.00 60 1012.5
20260903132433 84 264 1.0 4.0 0.00 0.00 0.00 60 1012.5
20260903132341 84 266 1.0 4.0 0.00 0.00 0.00 60 1012.4
20260903132223 84 267 1.0 4.0 0.00 0.00 0.00 60 1012.5
20260903132126 84 269 1.0 5.0 0.00 0.00 0.00 60 1012.5
20260903132033 84 274 1.0 5.0 0.00 0.00 0.00 60 1012.5
20260903131942 84 274 1.0 5.0 0.00 0.00 0.00 60 1012.4
20260903131823 84 274 1.0 5.0 0.00 0.00 0.00 60 1012.5
20260903131725 84 274 1.0 5.0 0.00 0.00 0.00 60 1012.5
20260903131635 84 274 1.0 5.0 0.00 0.00 0.00 60 1012.5
20260903131556 84 274 1.0 5.0 0.00 0.00 0.00 60 1012.5
20260903131419 84 274 2.0 5.0 0.00 0.00 0.00 60 1012.5
20260903131326 84 274 1.0 5.0 0.00 0.00 0.00 60 1012.5
20260903131235 84 274 1.0 4.0 0.00 0.00 0.00 60 1012.5
20260903131156 84 274 1.0 4.0 0.00 0.00 0.00 60 1012.5
20260903131043 84 274 1.0 4.0 0.00 0.00 0.00 60 1012.4
20260903130944 84 274 0.0 4.0 0.00 0.00 0.00 60 1012.4
20260903130823 84 274 1.0 4.0 0.00 0.00 0.00 60 1012.4
20260903130733 84 274 2.0 4.0 0.00 0.00 0.00 60 1012.4
20260903130617 84 274 2.0 4.0 0.00 0.00 0.00 60 1012.5
20260903130518 84 274 1.0 3.0 0.00 0.00 0.00 60 1012.4
20260903130427 84 274 1.0 3.0 0.00 0.00 0.00 60 1012.4
20260903130348 84 274 1.0 3.0 0.00 0.00 0.00 60 1012.4
20260903130131 84 274 1.0 4.0 0.00 0.00 0.00 60 1012.5
20260903130030 84 274 1.0 4.0 0.00 0.00 0.00 60 1012.5
20260903125921 84 274 1.0 4.0 0.00 0.00 0.00 60 1012.4
20260903125823 84 274 1.0 4.0 0.00 0.00 0.00 60 1012.4
20260903125733 84 274 1.0 4.0 0.00 0.00 0.00 60 1012.4
20260903125632 84 274 1.0 4.0 0.00 0.00 0.00 60 1012.4
20260903125533 84 274 1.0 4.0 0.00 0.00 0.00 60 1012.4
20260903125442 84 274 2.0 4.0 0.00 0.00 0.00 60 1012.4
20260903125329 84 275 1.0 4.0 0.00 0.00 0.00 60 1012.4
20260903125227 84 274 0.0 4.0 0.00 0.00 0.00 60 1012.3
20260903125127 84 274 0.0 4.0 0.00 0.00 0.00 60 1012.3
20260903125037 84 274 0.0 4.0 0.00 0.00 0.00 60 1012.3
20260903124919 84 274 1.0 4.0 0.00 0.00 0.00 59 1012.2
20260903124821 84 275 1.0 4.0 0.00 0.00 0.00 59 1012.2
20260903124725 84 275 1.0 4.0 0.00 0.00 0.00 59 1012.2
20260903124635 84 275 0.0 2.0 0.00 0.00 0.00 59 1012.2
20260903124536 84 275 0.0 2.0 0.00 0.00 0.00 59 1012.2
20260903124417 84 275 0.0 2.0 0.00 0.00 0.00 59 1012.1
20260903124324 84 275 0.0 0.0 0.00 0.00 0.00 59 1012.2
20260903124254 85 275 0.0 0.0 0.00 0.00 0.00 59 1012.2
20260903124118 85 360 0.0 1.0 0.00 0.00 0.00 59 1012.2
20260903124021 85 360 0.0 3.0 0.00 0.00 0.00 59 1012.1
20260903123921 85 274 0.0 3.0 0.00 0.00 0.00 59 1012.2
20260903123852 85 274 0.0 3.0 0.00 0.00 0.00 59 1012.2
20260903123729 85 274 0.0 4.0 0.00 0.00 0.00 59 1012.1
20260903123638 85 274 0.0 4.0 0.00 0.00 0.00 58 1012.2
20260903123540 85 274 0.0 4.0 0.00 0.00 0.00 59 1012.2
20260903123423 85 275 0.0 6.0 0.00 0.00 0.00 58 1012.2
20260903123333 85 275 1.0 6.0 0.00 0.00 0.00 58 1012.2
20260903123234 85 275 1.0 6.0 0.00 0.00 0.00 58 1012.1
20260903123142 85 275 1.0 6.0 0.00 0.00 0.00 58 1012.2
20260903123042 85 275 1.0 6.0 0.00 0.00 0.00 58 1012.0
20260903122923 85 275 1.0 6.0 0.00 0.00 0.00 58 1012.0
20260903122833 85 275 0.0 6.0 0.00 0.00 0.00 58 1012.0
20260903122719 85 275 2.0 6.0 0.00 0.00 0.00 58 1011.9
20260903122620 85 275 2.0 6.0 0.00 0.00 0.00 58 1012.0
20260903122530 85 276 2.0 5.0 0.00 0.00 0.00 58 1012.0
20260903122433 85 276 1.0 5.0 0.00 0.00 0.00 58 1012.0
20260903122334 85 276 1.0 5.0 0.00 0.00 0.00 58 1011.9
20260903122243 85 276 0.0 4.0 0.00 0.00 0.00 58 1012.0
20260903122127 85 276 0.0 5.0 0.00 0.00 0.00 58 1012.0
20260903122027 85 276 1.0 5.0 0.00 0.00 0.00 58 1012.0
20260903121926 85 276 2.0 5.0 0.00 0.00 0.00 58 1012.0
20260903121835 85 360 1.0 5.0 0.00 0.00 0.00 58 1012.0
20260903121719 85 360 0.0 5.0 0.00 0.00 0.00 57 1011.9
20260903121637 85 360 1.0 5.0 0.00 0.00 0.00 57 1011.9
20260903121522 85 360 1.0 5.0 0.00 0.00 0.00 57 1012.0
20260903121430 85 360 2.0 5.0 0.00 0.00 0.00 57 1012.0
20260903121338 85 360 1.0 5.0 0.00 0.00 0.00 57 1011.9
20260903121219 85 360 0.0 4.0 0.00 0.00 0.00 57 1011.9
20260903121121 85 360 1.0 4.0 0.00 0.00 0.00 57 1011.8
20260903121051 85 360 1.0 5.0 0.00 0.00 0.00 57 1011.8
20260903120931 85 360 1.0 5.0 0.00 0.00 0.00 57 1011.8
20260903120835 85 360 1.0 6.0 0.00 0.00 0.00 57 1011.8
20260903120716 85 360 0.0 6.0 0.00 0.00 0.00 57 1011.7
20260903120646 85 360 0.0 6.0 0.00 0.00 0.00 57 1011.7
20260903120534 85 360 1.0 6.0 0.00 0.00 0.00 57 1011.7
20260903120433 85 360 1.0 6.0 0.00 0.00 0.00 57 1011.7
20260903120316 85 360 1.0 6.0 0.00 0.00 0.00 57 1011.6
20260903120221 85 360 2.0 6.0 0.00 0.00 0.00 57 1011.6
20260903120130 85 360 2.0 6.0 0.00 0.00 0.00 57 1011.6
20260903120041 85 360 2.0 6.0 0.00 0.00 0.00 57 1011.7
20260903115939 85 360 1.0 5.0 0.00 0.00 0.00 57 1011.7
20260903115822 85 360 2.0 5.0 0.00 0.00 0.00 57 1011.7
20260903115725 85 360 1.0 4.0 0.00 0.00 0.00 57 1011.6
20260903115626 85 360 1.0 4.0 0.00 0.00 0.00 57 1011.6
20260903115519 85 360 1.0 4.0 0.00 0.00 0.00 57 1011.6
20260903115442 85 360 2.0 4.0 0.00 0.00 0.00 57 1011.6
20260903115347 85 360 1.0 4.0 0.00 0.00 0.00 57 1011.6
20260903115255 85 360 2.0 5.0 0.00 0.00 0.00 57 1011.6
20260903115036 86 360 1.0 6.0 0.00 0.00 0.00 57 1011.6
20260903114917 86 360 1.0 6.0 0.00 0.00 0.00 57 1011.6
20260903114823 86 360 1.0 6.0 0.00 0.00 0.00 56 1011.5
20260903114725 86 360 1.0 6.0 0.00 0.00 0.00 56 1011.7
20260903114636 86 360 1.0 6.0 0.00 0.00 0.00 56 1011.7
20260903114518 86 360 2.0 6.0 0.00 0.00 0.00 56 1011.6
20260903114440 86 360 2.0 6.0 0.00 0.00 0.00 56 1011.6
20260903114327 86 360 2.0 6.0 0.00 0.00 0.00 56 1011.6
20260903114230 86 360 1.0 6.0 0.00 0.00 0.00 56 1011.6
20260903114115 86 360 2.0 6.0 0.00 0.00 0.00 56 1011.5
20260903114018 86 360 2.0 7.0 0.00 0.00 0.00 56 1011.4
20260903113927 86 360 1.0 7.0 0.00 0.00 0.00 56 1011.4
20260903113829 86 360 2.0 7.0 0.00 0.00 0.00 56 1011.4
20260903113739 86 360 1.0 7.0 0.00 0.00 0.00 56 1011.6
20260903113622 86 360 1.0 7.0 0.00 0.00 0.00 56 1011.5
20260903113523 86 360 2.0 7.0 0.00 0.00 0.00 56 1011.6
20260903113454 86 360 2.0 7.0 0.00 0.00 0.00 56 1011.6
20260903113334 86 360 2.0 7.0 0.00 0.00 0.00 56 1011.6
20260903113303 86 360 3.0 7.0 0.00 0.00 0.00 56 1011.5
20260903113123 86 360 2.0 7.0 0.00 0.00 0.00 56 1011.5
20260903113043 86 360 2.0 7.0 0.00 0.00 0.00 56 1011.5
20260903112932 86 360 2.0 7.0 0.00 0.00 0.00 56 1011.5
20260903112837 86 360 2.0 7.0 0.00 0.00 0.00 56 1011.7
20260903112718 86 360 2.0 7.0 0.00 0.00 0.00 55 1011.6
20260903112647 86 360 2.0 5.0 0.00 0.00 0.00 56 1011.6
20260903112526 86 360 3.0 5.0 0.00 0.00 0.00 56 1011.6
20260903112436 86 360 2.0 5.0 0.00 0.00 0.00 56 1011.6
20260903112318 86 360 2.0 5.0 0.00 0.00 0.00 56 1011.7
20260903112226 86 360 1.0 5.0 0.00 0.00 0.00 56 1011.6
20260903112130 86 360 1.0 5.0 0.00 0.00 0.00 55 1011.6
20260903112038 86 360 2.0 5.0 0.00 0.00 0.00 55 1011.7
20260903111918 86 360 2.0 6.0 0.00 0.00 0.00 55 1011.6
20260903111847 86 360 2.0 6.0 0.00 0.00 0.00 55 1011.7
20260903111726 86 360 1.0 6.0 0.00 0.00 0.00 55 1011.7
20260903111626 86 360 1.0 7.0 0.00 0.00 0.00 55 1011.6
20260903111534 86 360 2.0 7.0 0.00 0.00 0.00 55 1011.6
20260903111419 86 360 3.0 7.0 0.00 0.00 0.00 55 1011.6
20260903111321 86 360 3.0 7.0 0.00 0.00 0.00 55 1011.6
20260903111230 86 360 2.0 7.0 0.00 0.00 0.00 55 1011.6
20260903111132 86 360 2.0 7.0 0.00 0.00 0.00 55 1011.6
20260903111034 86 360 2.0 7.0 0.00 0.00 0.00 55 1011.6
20260903110942 86 360 2.0 7.0 0.00 0.00 0.00 55 1011.7
20260903110822 86 360 2.0 7.0 0.00 0.00 0.00 55 1011.7
20260903110736 86 360 1.0 6.0 0.00 0.00 0.00 55 1011.7
20260903110618 86 360 1.0 5.0 0.00 0.00 0.00 55 1011.6
20260903110520 86 360 1.0 4.0 0.00 0.00 0.00 55 1011.6
20260903110421 86 360 1.0 4.0 0.00 0.00 0.00 55 1011.6
20260903110332 86 360 0.0 4.0 0.00 0.00 0.00 55 1011.6
20260903110218 86 360 0.0 4.0 0.00 0.00 0.00 55 1011.7
20260903110120 86 360 1.0 4.0 0.00 0.00 0.00 55 1011.7
20260903110035 86 360 1.0 4.0 0.00 0.00 0.00 55 1011.7
20260903105951 86 360 1.0 4.0 0.00 0.00 0.00 54 1011.6
20260903105857 86 360 1.0 4.0 0.00 0.00 0.00 54 1011.6
20260903105718 86 360 1.0 4.0 0.00 0.00 0.00 54 1011.6
20260903105619 87 360 1.0 4.0 0.00 0.00 0.00 54 1011.6
20260903105548 87 360 1.0 4.0 0.00 0.00 0.00 54 1011.7
20260903105433 87 360 1.0 4.0 0.00 0.00 0.00 54 1011.7
20260903105341 87 360 0.0 2.0 0.00 0.00 0.00 54 1011.6
20260903105222 87 360 1.0 2.0 0.00 0.00 0.00 54 1011.7
20260903105142 87 360 1.0 2.0 0.00 0.00 0.00 53 1011.7
20260903105029 87 360 1.0 2.0 0.00 0.00 0.00 53 1011.7
20260903104931 87 360 0.0 2.0 0.00 0.00 0.00 53 1011.7
20260903104859 87 360 0.0 2.0 0.00 0.00 0.00 53 1011.8
20260903104723 87 360 0.0 2.0 0.00 0.00 0.00 53 1011.7
20260903104623 87 360 0.0 2.0 0.00 0.00 0.00 53 1011.7
20260903104526 87 360 0.0 2.0 0.00 0.00 0.00 53 1011.7
20260903104456 87 360 0.0 2.0 0.00 0.00 0.00 53 1011.7
20260903104332 87 360 0.0 2.0 0.00 0.00 0.00 53 1011.7
20260903104242 87 360 0.0 2.0 0.00 0.00 0.00 53 1011.7
20260903104124 87 360 0.0 1.0 0.00 0.00 0.00 53 1011.7
20260903104036 87 360 0.0 1.0 0.00 0.00 0.00 52 1011.7
20260903103916 87 360 0.0 1.0 0.00 0.00 0.00 52 1011.7
20260903103817 87 360 0.0 1.0 0.00 0.00 0.00 52 1011.7
20260903103747 87 360 0.0 1.0 0.00 0.00 0.00 52 1011.6
20260903103648 87 360 0.0 3.0 0.00 0.00 0.00 52 1011.7
20260903103535 87 360 0.0 3.0 0.00 0.00 0.00 52 1011.7
20260903103421 87 360 0.0 3.0 0.00 0.00 0.00 52 1011.7
20260903103321 87 360 0.0 3.0 0.00 0.00 0.00 52 1011.7
20260903103232 87 360 0.0 5.0 0.00 0.00 0.00 51 1011.7
20260903103132 87 360 0.0 5.0 0.00 0.00 0.00 52 1011.7
20260903103032 88 360 0.0 5.0 0.00 0.00 0.00 52 1011.7
20260903102941 88 360 1.0 5.0 0.00 0.00 0.00 52 1011.6
20260903102840 88 360 1.0 5.0 0.00 0.00 0.00 51 1011.7
20260903102723 88 360 0.0 5.0 0.00 0.00 0.00 51 1011.8
20260903102654 88 360 0.0 5.0 0.00 0.00 0.00 51 1011.8
20260903102531 88 360 1.0 5.0 0.00 0.00 0.00 51 1011.7
20260903102440 88 360 2.0 5.0 0.00 0.00 0.00 51 1011.8
20260903102320 88 360 2.0 5.0 0.00 0.00 0.00 51 1011.7
20260903102219 88 360 1.0 3.0 0.00 0.00 0.00 51 1011.7
20260903102134 88 360 1.0 4.0 0.00 0.00 0.00 51 1011.7
20260903102035 88 360 1.0 5.0 0.00 0.00 0.00 51 1011.7
20260903101918 88 360 0.0 5.0 0.00 0.00 0.00 51 1011.7
20260903101820 88 360 1.0 5.0 0.00 0.00 0.00 51 1011.6
20260903101730 88 360 1.0 5.0 0.00 0.00 0.00 51 1011.6
20260903101632 88 360 1.0 5.0 0.00 0.00 0.00 50 1011.7
20260903101517 88 360 0.0 5.0 0.00 0.00 0.00 50 1011.6
20260903101418 88 360 1.0 5.0 0.00 0.00 0.00 50 1011.6
20260903101329 88 360 1.0 7.0 0.00 0.00 0.00 50 1011.6
20260903101232 88 360 2.0 7.0 0.00 0.00 0.00 50 1011.7
20260903101132 88 360 1.0 7.0 0.00 0.00 0.00 50 1011.7
20260903101041 88 360 2.0 7.0 0.00 0.00 0.00 50 1011.6
20260903100919 88 360 2.0 7.0 0.00 0.00 0.00 50 1011.7
20260903100832 88 360 2.0 7.0 0.00 0.00 0.00 50 1011.7
20260903100732 88 360 2.0 7.0 0.00 0.00 0.00 50 1011.6
20260903100633 88 360 3.0 7.0 0.00 0.00 0.00 50 1011.6
20260903100542 88 360 2.0 8.0 0.00 0.00 0.00 50 1011.6
20260903100424 88 360 2.0 8.0 0.00 0.00 0.00 50 1011.7
20260903100322 88 360 3.0 8.0 0.00 0.00 0.00 50 1011.7
20260903100237 88 360 3.0 10.0 0.00 0.00 0.00 50 1011.7
20260903100118 88 360 2.0 13.0 0.00 0.00 0.00 50 1011.7
20260903100033 88 360 2.0 13.0 0.00 0.00 0.00 49 1011.7
20260903095929 88 360 3.0 13.0 0.00 0.00 0.00 49 1011.6
20260903095830 88 360 3.0 13.0 0.00 0.00 0.00 49 1011.6
20260903095740 88 360 3.0 13.0 0.00 0.00 0.00 49 1011.6
20260903095625 88 360 3.0 13.0 0.00 0.00 0.00 49 1011.6
20260903095527 88 360 4.0 13.0 0.00 0.00 0.00 49 1011.6
20260903095427 88 360 5.0 13.0 0.00 0.00 0.00 49 1011.6
20260903095357 88 360 6.0 13.0 0.00 0.00 0.00 49 1011.6
20260903095235 88 360 4.0 12.0 0.00 0.00 0.00 49 1011.6
20260903095115 88 360 4.0 10.0 0.00 0.00 0.00 49 1011.6
20260903095030 88 360 4.0 10.0 0.00 0.00 0.00 49 1011.6
20260903094930 88 360 4.0 10.0 0.00 0.00 0.00 49 1011.5
20260903094833 88 360 4.0 10.0 0.00 0.00 0.00 49 1011.6
20260903094741 88 360 5.0 10.0 0.00 0.00 0.00 49 1011.6
20260903094623 88 360 4.0 10.0 0.00 0.00 0.00 49 1011.6
20260903094523 88 360 3.0 9.0 0.00 0.00 0.00 49 1011.6
20260903094429 88 360 2.0 9.0 0.00 0.00 0.00 49 1011.6
20260903094357 88 360 3.0 9.0 0.00 0.00 0.00 49 1011.6
20260903094217 89 360 4.0 9.0 0.00 0.00 0.00 49 1011.5
20260903094117 89 360 2.0 9.0 0.00 0.00 0.00 48 1011.5
20260903094027 89 360 3.0 12.0 0.00 0.00 0.00 48 1011.6
20260903093927 89 360 4.0 12.0 0.00 0.00 0.00 48 1011.5
20260903093830 89 360 4.0 12.0 0.00 0.00 0.00 48 1011.5
20260903093715 89 360 3.0 12.0 0.00 0.00 0.00 48 1011.5
20260903093644 89 360 4.0 12.0 0.00 0.00 0.00 48 1011.5
20260903093522 89 360 5.0 12.0 0.00 0.00 0.00 48 1011.6
20260903093433 89 360 5.0 12.0 0.00 0.00 0.00 48 1011.6
20260903093335 89 360 5.0 12.0 0.00 0.00 0.00 48 1011.5
20260903093243 89 360 6.0 12.0 0.00 0.00 0.00 48 1011.5
20260903093142 89 360 5.0 12.0 0.00 0.00 0.00 47 1011.6
20260903093035 89 360 4.0 10.0 0.00 0.00 0.00 47 1011.6
20260903092937 89 360 4.0 10.0 0.00 0.00 0.00 47 1011.6
20260903092818 89 360 4.0 10.0 0.00 0.00 0.00 47 1011.6
20260903092748 89 360 5.0 10.0 0.00 0.00 0.00 47 1011.6
20260903092718 89 360 6.0 10.0 0.00 0.00 0.00 47 1011.6
20260903092436 89 360 4.0 11.0 0.00 0.00 0.00 46 1011.4
20260903092320 89 360 3.0 11.0 0.00 0.00 0.00 46 1011.4
20260903092222 89 360 3.0 11.0 0.00 0.00 0.00 45 1011.5
20260903092151 89 360 4.0 11.0 0.00 0.00 0.00 45 1011.5
20260903092031 89 360 4.0 11.0 0.00 0.00 0.00 45 1011.4
20260903091931 89 360 3.0 11.0 0.00 0.00 0.00 45 1011.5
20260903091840 89 360 3.0 11.0 0.00 0.00 0.00 44 1011.5
20260903091740 89 360 4.0 11.0 0.00 0.00 0.00 43 1011.5
20260903091649 89 360 4.0 10.0 0.00 0.00 0.00 43 1011.5
20260903091533 89 360 4.0 10.0 0.00 0.00 0.00 42 1011.6
20260903091440 89 360 2.0 8.0 0.00 0.00 0.00 42 1011.6
20260903091322 89 360 3.0 7.0 0.00 0.00 0.00 42 1011.6
20260903091222 89 360 3.0 8.0 0.00 0.00 0.00 41 1011.6
20260903091131 89 360 3.0 8.0 0.00 0.00 0.00 41 1011.6
20260903091034 89 360 3.0 8.0 0.00 0.00 0.00 41 1011.6
20260903090921 89 360 4.0 8.0 0.00 0.00 0.00 41 1011.5
20260903090823 89 360 3.0 8.0 0.00 0.00 0.00 40 1011.5
20260903090733 89 360 4.0 8.0 0.00 0.00 0.00 40 1011.5
20260903090634 89 360 3.0 8.0 0.00 0.00 0.00 39 1011.5
20260903090535 89 360 4.0 8.0 0.00 0.00 0.00 39 1011.6
20260903090443 89 360 4.0 8.0 0.00 0.00 0.00 39 1011.4
20260903090328 89 360 3.0 8.0 0.00 0.00 0.00 38 1011.4
20260903090229 89 360 4.0 8.0 0.00 0.00 0.00 38 1011.6
20260903090138 89 360 4.0 8.0 0.00 0.00 0.00 38 1011.5
20260903090030 89 360 4.0 8.0 0.00 0.00 0.00 37 1011.5
20260903085919 89 360 3.0 8.0 0.00 0.00 0.00 37 1011.6
20260903085829 89 360 2.0 8.0 0.00 0.00 0.00 37 1011.6
20260903085734 89 360 3.0 8.0 0.00 0.00 0.00 37 1011.6
20260903085702 89 360 4.0 8.0 0.00 0.00 0.00 37 1011.4
20260903085521 89 360 4.0 8.0 0.00 0.00 0.00 36 1011.4
20260903085422 89 360 3.0 8.0 0.00 0.00 0.00 36 1011.4
20260903085333 89 360 3.0 8.0 0.00 0.00 0.00 36 1011.4
20260903085216 89 360 3.0 8.0 0.00 0.00 0.00 36 1011.4
20260903085116 89 360 2.0 7.0 0.00 0.00 0.00 36 1011.4
20260903085030 89 360 2.0 7.0 0.00 0.00 0.00 35 1011.4
20260903084933 89 360 3.0 7.0 0.00 0.00 0.00 35 1011.5
20260903084833 89 360 3.0 8.0 0.00 0.00 0.00 35 1011.4
20260903084742 89 360 3.0 8.0 0.00 0.00 0.00 35 1011.5
20260903084625 89 360 3.0 8.0 0.00 0.00 0.00 35 1011.5
20260903084547 89 360 3.0 8.0 0.00 0.00 0.00 35 1011.5
20260903084439 89 360 3.0 8.0 0.00 0.00 0.00 35 1011.5
20260903084322 89 360 3.0 8.0 0.00 0.00 0.00 35 1011.4
20260903084225 89 360 3.0 8.0 0.00 0.00 0.00 35 1011.5
20260903084127 89 360 3.0 8.0 0.00 0.00 0.00 35 1011.5
20260903084034 89 360 3.0 8.0 0.00 0.00 0.00 35 1011.5
20260903083916 89 360 3.0 7.0 0.00 0.00 0.00 34 1011.6
20260903083821 89 360 2.0 7.0 0.00 0.00 0.00 34 1011.6
20260903083731 89 360 3.0 7.0 0.00 0.00 0.00 34 1011.6
20260903083630 89 360 3.0 7.0 0.00 0.00 0.00 34 1011.7
20260903083530 89 360 2.0 6.0 0.00 0.00 0.00 34 1011.6
20260903083440 89 360 3.0 6.0 0.00 0.00 0.00 34 1011.6
20260903083322 89 360 3.0 6.0 0.00 0.00 0.00 33 1011.7
20260903083244 89 360 3.0 6.0 0.00 0.00 0.00 33 1011.7
20260903083138 89 360 3.0 6.0 0.00 0.00 0.00 33 1011.7
20260903083019 89 360 3.0 6.0 0.00 0.00 0.00 33 1011.6
20260903082926 89 360 3.0 7.0 0.00 0.00 0.00 33 1011.6
20260903082826 89 360 3.0 7.0 0.00 0.00 0.00 32 1011.6
20260903082729 89 360 2.0 7.0 0.00 0.00 0.00 32 1011.6
20260903082638 89 360 3.0 7.0 0.00 0.00 0.00 32 1011.4
20260903082524 89 360 3.0 7.0 0.00 0.00 0.00 32 1011.5
20260903082426 89 360 3.0 7.0 0.00 0.00 0.00 31 1011.5
20260903082355 89 360 3.0 7.0 0.00 0.00 0.00 31 1011.5
20260903082215 90 360 3.0 7.0 0.00 0.00 0.00 31 1011.5
20260903082116 89 360 3.0 7.0 0.00 0.00 0.00 30 1011.4
20260903082018 89 360 3.0 7.0 0.00 0.00 0.00 30 1011.6
20260903081933 89 360 3.0 7.0 0.00 0.00 0.00 30 1011.6
20260903081833 89 360 3.0 8.0 0.00 0.00 0.00 30 1011.5
20260903081714 89 360 4.0 8.0 0.00 0.00 0.00 30 1011.6
20260903081645 89 360 4.0 8.0 0.00 0.00 0.00 30 1011.6
20260903081544 89 360 4.0 8.0 0.00 0.00 0.00 30 1011.6
20260903081424 89 360 4.0 8.0 0.00 0.00 0.00 30 1011.6
20260903081317 89 360 4.0 8.0 0.00 0.00 0.00 30 1011.6
20260903081217 89 360 4.0 8.0 0.00 0.00 0.00 29 1011.6
20260903081119 89 360 4.0 8.0 0.00 0.00 0.00 29 1011.7
20260903081030 89 360 4.0 7.0 0.00 0.00 0.00 29 1011.7
20260903080932 89 360 3.0 7.0 0.00 0.00 0.00 29 1011.6
20260903080831 89 360 3.0 7.0 0.00 0.00 0.00 29 1011.6
20260903080739 89 360 2.0 6.0 0.00 0.00 0.00 29 1011.7
20260903080624 89 360 2.0 6.0 0.00 0.00 0.00 28 1011.6
20260903080525 89 360 3.0 6.0 0.00 0.00 0.00 28 1011.6
20260903080427 89 360 2.0 5.0 0.00 0.00 0.00 28 1011.6
20260903080336 89 360 2.0 5.0 0.00 0.00 0.00 28 1011.6
20260903080217 89 360 2.0 5.0 0.00 0.00 0.00 28 1011.7
20260903080121 89 360 2.0 5.0 0.00 0.00 0.00 28 1011.6
20260903080044 89 360 2.0 5.0 0.00 0.00 0.00 28 1011.6
20260903075955 89 360 2.0 5.0 0.00 0.00 0.00 28 1011.6
20260903075842 89 360 2.0 4.0 0.00 0.00 0.00 28 1011.5
20260903075722 89 360 1.0 3.0 0.00 0.00 0.00 28 1011.6
20260903075624 89 360 0.0 3.0 0.00 0.00 0.00 28 1011.6
20260903075526 89 360 0.0 3.0 0.00 0.00 0.00 28 1011.6
20260903075439 89 360 1.0 3.0 0.00 0.00 0.00 28 1011.6
20260903075321 89 360 1.0 4.0 0.00 0.00 0.00 28 1011.6
20260903075222 89 360 1.0 5.0 0.00 0.00 0.00 28 1011.5
20260903075132 89 360 1.0 5.0 0.00 0.00 0.00 27 1011.5
20260903075033 89 360 1.0 5.0 0.00 0.00 0.00 27 1011.6
20260903074916 89 360 1.0 5.0 0.00 0.00 0.00 27 1011.5
20260903074822 89 360 1.0 5.0 0.00 0.00 0.00 27 1011.5
20260903074730 89 360 1.0 5.0 0.00 0.00 0.00 27 1011.5
20260903074632 89 360 1.0 5.0 0.00 0.00 0.00 27 1011.5
20260903074534 89 360 2.0 5.0 0.00 0.00 0.00 27 1011.5
20260903074416 88 360 1.0 5.0 0.00 0.00 0.00 28 1011.5
20260903074323 88 360 0.0 0.0 0.00 0.00 0.00 28 1011.5
20260903074258 88 360 0.0 0.0 0.00 0.00 0.00 28 1011.5
20260903074117 88 360 0.0 0.0 0.00 0.00 0.00 28 1011.4
20260903074037 88 360 0.0 0.0 0.00 0.00 0.00 29 1011.4
20260903073947 88 360 0.0 0.0 0.00 0.00 0.00 29 1011.4
20260903073747 88 360 0.0 0.0 0.00 0.00 0.00 29 1011.4
20260903073636 88 360 0.0 0.0 0.00 0.00 0.00 29 1011.4
20260903073518 88 360 0.0 0.0 0.00 0.00 0.00 28 1011.4
20260903073421 88 360 0.0 0.0 0.00 0.00 0.00 29 1011.4
20260903073332 88 360 0.0 0.0 0.00 0.00 0.00 29 1011.4
20260903073233 88 360 0.0 0.0 0.00 0.00 0.00 29 1011.5
20260903073202 88 360 0.0 0.0 0.00 0.00 0.00 29 1011.5
20260903073023 88 360 0.0 0.0 0.00 0.00 0.00 29 1011.5
20260903072925 88 360 0.0 0.0 0.00 0.00 0.00 29 1011.6
20260903072826 88 360 0.0 0.0 0.00 0.00 0.00 29 1011.5
20260903072719 88 360 0.0 0.0 0.00 0.00 0.00 29 1011.6
20260903072619 88 360 0.0 0.0 0.00 0.00 0.00 29 1011.5
20260903072551 88 360 0.0 0.0 0.00 0.00 0.00 28 1011.5
20260903072429 89 360 0.0 0.0 0.00 0.00 0.00 28 1011.4
20260903072337 89 360 0.0 0.0 0.00 0.00 0.00 28 1011.4
20260903072218 89 360 0.0 0.0 0.00 0.00 0.00 28 1011.4
20260903072125 89 360 0.0 0.0 0.00 0.00 0.00 28 1011.4
20260903072026 89 360 0.0 0.0 0.00 0.00 0.00 28 1011.4
20260903071936 89 360 0.0 0.0 0.00 0.00 0.00 27 1011.4
20260903071818 89 360 0.0 0.0 0.00 0.00 0.00 26 1011.3
20260903071740 90 360 0.0 0.0 0.00 0.00 0.00 26 1011.4
20260903071647 90 360 0.0 0.0 0.00 0.00 0.00 26 1011.5
20260903071529 90 360 0.0 0.0 0.00 0.00 0.00 26 1011.5
20260903071443 90 360 0.0 0.0 0.00 0.00 0.00 26 1011.3
20260903071324 90 360 0.0 0.0 0.00 0.00 0.00 25 1011.4
20260903071246 90 360 0.0 0.0 0.00 0.00 0.00 25 1011.3
20260903071133 90 360 0.0 0.0 0.00 0.00 0.00 25 1011.3
20260903071054 90 360 0.0 0.0 0.00 0.00 0.00 26 1011.4
20260903070941 90 360 0.0 0.0 0.00 0.00 0.00 25 1011.4
20260903070821 91 360 0.0 0.0 0.00 0.00 0.00 25 1011.4
20260903070734 90 360 0.0 0.0 0.00 0.00 0.00 25 1011.4
20260903070634 91 360 0.0 0.0 0.00 0.00 0.00 26 1011.4
20260903070535 91 360 0.0 0.0 0.00 0.00 0.00 26 1011.4
20260903070418 91 360 0.0 0.0 0.00 0.00 0.00 25 1011.3
20260903070326 91 360 0.0 0.0 0.00 0.00 0.00 25 1011.4
20260903070229 91 360 0.0 0.0 0.00 0.00 0.00 25 1011.4
20260903070114 91 360 0.0 0.0 0.00 0.00 0.00 25 1011.4
20260903070035 91 360 0.0 2.0 0.00 0.00 0.00 25 1011.4
20260903065926 91 360 0.0 2.0 0.00 0.00 0.00 25 1011.2
20260903065829 91 360 0.0 2.0 0.00 0.00 0.00 25 1011.2
20260903065739 91 360 0.0 3.0 0.00 0.00 0.00 25 1011.4
20260903065640 91 360 0.0 3.0 0.00 0.00 0.00 24 1011.4
20260903065524 91 360 0.0 3.0 0.00 0.00 0.00 24 1011.4
20260903065454 91 360 0.0 3.0 0.00 0.00 0.00 25 1011.4
20260903065333 91 360 0.0 3.0 0.00 0.00 0.00 24 1011.4
20260903065215 91 360 0.0 3.0 0.00 0.00 0.00 24 1011.4
20260903065125 91 360 0.0 3.0 0.00 0.00 0.00 24 1011.3
20260903065027 91 360 1.0 3.0 0.00 0.00 0.00 24 1011.3
20260903064929 91 360 1.0 3.0 0.00 0.00 0.00 25 1011.3
20260903064842 91 360 1.0 3.0 0.00 0.00 0.00 25 1011.3
20260903064722 91 360 0.0 4.0 0.00 0.00 0.00 25 1011.3
20260903064624 91 360 0.0 4.0 0.00 0.00 0.00 25 1011.2
20260903064526 91 360 1.0 4.0 0.00 0.00 0.00 26 1011.2
20260903064435 92 360 1.0 4.0 0.00 0.00 0.00 25 1011.2
20260903064320 92 360 1.0 4.0 0.00 0.00 0.00 25 1011.2
20260903064221 92 360 1.0 4.0 0.00 0.00 0.00 25 1011.1
20260903064122 92 360 2.0 4.0 0.00 0.00 0.00 24 1011.1
20260903064049 92 360 1.0 4.0 0.00 0.00 0.00 24 1011.1
20260903063937 92 360 1.0 4.0 0.00 0.00 0.00 25 1011.2
20260903063817 92 360 1.0 4.0 0.00 0.00 0.00 25 1011.1
20260903063717 92 360 2.0 4.0 0.00 0.00 0.00 24 1011.1
20260903063629 92 360 1.0 4.0 0.00 0.00 0.00 25 1011.1
20260903063532 92 360 1.0 5.0 0.00 0.00 0.00 25 1011.1
20260903063433 92 360 1.0 5.0 0.00 0.00 0.00 24 1011.1
20260903063340 92 360 1.0 5.0 0.00 0.00 0.00 24 1011.0
20260903063243 92 360 1.0 6.0 0.00 0.00 0.00 24 1011.0
20260903063123 92 360 1.0 6.0 0.00 0.00 0.00 24 1010.9
20260903063033 92 360 2.0 6.0 0.00 0.00 0.00 24 1010.9
20260903062919 92 360 2.0 6.0 0.00 0.00 0.00 24 1011.0
20260903062820 92 360 2.0 6.0 0.00 0.00 0.00 24 1011.0
20260903062721 92 360 2.0 6.0 0.00 0.00 0.00 24 1011.0
20260903062629 92 360 1.0 6.0 0.00 0.00 0.00 24 1011.0
20260903062532 92 360 2.0 6.0 0.00 0.00 0.00 24 1011.0
20260903062417 92 360 2.0 6.0 0.00 0.00 0.00 24 1011.0
20260903062324 92 360 2.0 5.0 0.00 0.00 0.00 25 1011.1
20260903062223 92 360 2.0 5.0 0.00 0.00 0.00 24 1011.1
20260903062134 92 360 2.0 5.0 0.00 0.00 0.00 25 1011.1
20260903062036 92 360 2.0 5.0 0.00 0.00 0.00 25 1011.1
20260903061917 92 360 2.0 5.0 0.00 0.00 0.00 25 1011.1
20260903061819 92 360 2.0 5.0 0.00 0.00 0.00 25 1011.0
20260903061733 92 360 2.0 5.0 0.00 0.00 0.00 25 1011.0
20260903061635 92 360 2.0 5.0 0.00 0.00 0.00 25 1011.0
20260903061605 92 360 2.0 5.0 0.00 0.00 0.00 25 1011.1
20260903061424 92 360 2.0 5.0 0.00 0.00 0.00 26 1011.1
20260903061324 92 360 1.0 5.0 0.00 0.00 0.00 26 1011.1
20260903061225 92 360 1.0 5.0 0.00 0.00 0.00 26 1011.1
20260903061139 92 360 2.0 6.0 0.00 0.00 0.00 26 1011.1
20260903061021 92 360 2.0 6.0 0.00 0.00 0.00 26 1011.2
20260903060924 92 360 2.0 6.0 0.00 0.00 0.00 26 1011.2
20260903060825 91 360 1.0 6.0 0.00 0.00 0.00 26 1011.2
20260903060735 92 360 2.0 6.0 0.00 0.00 0.00 27 1011.2
20260903060618 92 360 3.0 6.0 0.00 0.00 0.00 27 1011.1
20260903060523 91 360 2.0 6.0 0.00 0.00 0.00 27 1011.2
20260903060423 92 360 2.0 6.0 0.00 0.00 0.00 27 1011.1
20260903060334 92 360 2.0 6.0 0.00 0.00 0.00 27 1011.1
20260903060235 91 360 1.0 5.0 0.00 0.00 0.00 27 1011.1
20260903060136 92 360 2.0 5.0 0.00 0.00 0.00 27 1011.1
20260903060034 92 360 2.0 5.0 0.00 0.00 0.00 28 1011.0
20260903055927 92 360 3.0 5.0 0.00 0.00 0.00 28 1011.0
20260903055831 92 360 2.0 5.0 0.00 0.00 0.00 28 1011.0
20260903055739 91 360 2.0 5.0 0.00 0.00 0.00 28 1011.0
20260903055619 92 360 2.0 5.0 0.00 0.00 0.00 28 1010.9
20260903055521 91 360 2.0 5.0 0.00 0.00 0.00 28 1010.9
20260903055427 92 360 2.0 5.0 0.00 0.00 0.00 28 1011.1
20260903055333 92 360 2.0 5.0 0.00 0.00 0.00 28 1011.1
20260903055242 92 360 1.0 5.0 0.00 0.00 0.00 28 1011.0
20260903055125 92 360 1.0 5.0 0.00 0.00 0.00 28 1011.1
20260903055026 92 360 2.0 5.0 0.00 0.00 0.00 28 1011.1
20260903054956 92 360 2.0 5.0 0.00 0.00 0.00 28 1011.1
20260903054738 92 360 2.0 5.0 0.00 0.00 0.00 28 1011.1
20260903054624 92 360 3.0 5.0 0.00 0.00 0.00 28 1011.0
20260903054524 92 360 3.0 5.0 0.00 0.00 0.00 28 1011.1
20260903054425 92 360 2.0 5.0 0.00 0.00 0.00 28 1011.1
20260903054335 92 360 2.0 5.0 0.00 0.00 0.00 29 1011.1
20260903054303 92 360 2.0 5.0 0.00 0.00 0.00 29 1011.1
20260903054124 92 360 2.0 5.0 0.00 0.00 0.00 28 1011.2
20260903054025 92 360 2.0 5.0 0.00 0.00 0.00 29 1011.2
20260903053932 92 360 2.0 5.0 0.00 0.00 0.00 29 1011.2
20260903053840 92 360 2.0 5.0 0.00 0.00 0.00 28 1011.2
20260903053721 92 360 2.0 5.0 0.00 0.00 0.00 29 1011.1
20260903053643 92 360 2.0 5.0 0.00 0.00 0.00 29 1011.1
20260903053532 92 360 3.0 5.0 0.00 0.00 0.00 29 1011.1
20260903053432 92 360 2.0 5.0 0.00 0.00 0.00 29 1011.2
20260903053317 92 360 2.0 4.0 0.00 0.00 0.00 29 1011.2
20260903053217 92 360 1.0 4.0 0.00 0.00 0.00 29 1011.2
20260903053144 92 360 1.0 5.0 0.00 0.00 0.00 29 1011.2
20260903053034 92 360 1.0 5.0 0.00 0.00 0.00 29 1011.2
20260903052934 92 360 2.0 5.0 0.00 0.00 0.00 30 1011.2
20260903052815 92 360 2.0 5.0 0.00 0.00 0.00 30 1011.1
20260903052722 93 360 2.0 5.0 0.00 0.00 0.00 30 1011.1
20260903052633 93 360 2.0 5.0 0.00 0.00 0.00 30 1011.1
20260903052533 93 360 2.0 5.0 0.00 0.00 0.00 31 1011.1
20260903052441 93 360 2.0 5.0 0.00 0.00 0.00 31 1011.1
20260903052324 93 360 2.0 5.0 0.00 0.00 0.00 31 1011.1
20260903052223 93 360 2.0 5.0 0.00 0.00 0.00 31 1011.2
20260903052124 93 360 2.0 5.0 0.00 0.00 0.00 31 1011.1
20260903052039 93 360 1.0 6.0 0.00 0.00 0.00 31 1011.1
20260903051921 93 360 2.0 6.0 0.00 0.00 0.00 31 1011.1
20260903051842 93 360 2.0 6.0 0.00 0.00 0.00 31 1011.2
20260903051727 93 360 2.0 6.0 0.00 0.00 0.00 31 1011.1
20260903051627 93 360 2.0 6.0 0.00 0.00 0.00 32 1011.1
20260903051538 93 360 2.0 7.0 0.00 0.00 0.00 32 1011.1
20260903051423 93 360 2.0 7.0 0.00 0.00 0.00 32 1011.1
20260903051325 93 360 2.0 7.0 0.00 0.00 0.00 32 1011.0
20260903051234 93 360 2.0 7.0 0.00 0.00 0.00 32 1011.0
20260903051133 93 360 3.0 7.0 0.00 0.00 0.00 32 1011.1
20260903051041 93 360 3.0 7.0 0.00 0.00 0.00 32 1011.1
20260903050924 93 360 2.0 7.0 0.00 0.00 0.00 32 1011.1
20260903050827 93 360 2.0 7.0 0.00 0.00 0.00 32 1011.0
20260903050732 93 360 2.0 7.0 0.00 0.00 0.00 31 1011.0
20260903050639 93 360 3.0 5.0 0.00 0.00 0.00 31 1011.0
20260903050519 93 360 2.0 5.0 0.00 0.00 0.00 32 1011.1
20260903050422 93 360 2.0 5.0 0.00 0.00 0.00 32 1011.1
20260903050323 93 360 2.0 6.0 0.00 0.00 0.00 32 1011.0
20260903050254 93 360 1.0 6.0 0.00 0.00 0.00 33 1011.0
20260903050125 93 360 1.0 6.0 0.00 0.00 0.00 33 1011.1
20260903050027 93 360 1.0 6.0 0.00 0.00 0.00 33 1011.1
20260903045936 93 360 1.0 6.0 0.00 0.00 0.00 34 1011.1
20260903045825 93 360 2.0 6.0 0.00 0.00 0.00 34 1011.0
20260903045745 93 360 3.0 6.0 0.00 0.00 0.00 34 1011.2
20260903045635 93 360 3.0 6.0 0.00 0.00 0.00 34 1011.2
20260903045557 93 360 3.0 6.0 0.00 0.00 0.00 34 1011.2
20260903045444 93 360 2.0 5.0 0.00 0.00 0.00 34 1011.2
20260903045329 93 360 2.0 5.0 0.00 0.00 0.00 35 1011.1
20260903045238 94 360 2.0 5.0 0.00 0.00 0.00 34 1011.1
20260903045138 94 360 2.0 5.0 0.00 0.00 0.00 35 1011.1
20260903045044 94 360 2.0 5.0 0.00 0.00 0.00 35 1011.1
20260903045006 94 360 2.0 5.0 0.00 0.00 0.00 35 1011.1
20260903044830 94 360 2.0 5.0 0.00 0.00 0.00 35 1011.1
20260903044731 94 360 2.0 7.0 0.00 0.00 0.00 35 1011.2
20260903044615 94 360 2.0 7.0 0.00 0.00 0.00 35 1011.1
20260903044515 94 360 2.0 7.0 0.00 0.00 0.00 35 1011.1
20260903044444 94 360 2.0 7.0 0.00 0.00 0.00 35 1011.0
20260903044322 94 360 2.0 7.0 0.00 0.00 0.00 35 1011.0
20260903044232 94 360 2.0 7.0 0.00 0.00 0.00 35 1011.0
20260903044132 94 360 2.0 7.0 0.00 0.00 0.00 35 1011.1
20260903044016 94 360 2.0 7.0 0.00 0.00 0.00 35 1011.0
20260903043925 94 360 2.0 7.0 0.00 0.00 0.00 36 1011.0
20260903043848 94 360 3.0 7.0 0.00 0.00 0.00 35 1011.1
20260903043736 94 360 3.0 7.0 0.00 0.00 0.00 36 1011.1
20260903043617 94 360 2.0 7.0 0.00 0.00 0.00 36 1011.1
20260903043521 94 360 2.0 7.0 0.00 0.00 0.00 36 1011.0
20260903043421 94 360 3.0 7.0 0.00 0.00 0.00 36 1011.1
20260903043336 94 360 3.0 7.0 0.00 0.00 0.00 36 1011.1
20260903043218 94 360 3.0 6.0 0.00 0.00 0.00 37 1011.1
20260903043121 94 360 3.0 6.0 0.00 0.00 0.00 37 1011.1
20260903043023 94 360 3.0 6.0 0.00 0.00 0.00 37 1011.1
20260903042951 95 360 2.0 6.0 0.00 0.00 0.00 37 1011.1
20260903042859 94 360 1.0 5.0 0.00 0.00 0.00 37 1011.1
20260903042723 95 360 2.0 5.0 0.00 0.00 0.00 37 1011.1
20260903042625 95 360 2.0 5.0 0.00 0.00 0.00 38 1011.1
20260903042525 95 360 2.0 5.0 0.00 0.00 0.00 38 1011.1
20260903042455 95 240 1.0 5.0 0.00 0.00 0.00 39 1011.1
20260903042316 95 240 1.0 5.0 0.00 0.00 0.00 39 1011.1
20260903042244 95 240 1.0 5.0 0.00 0.00 0.00 38 1011.1
20260903042124 95 240 2.0 8.0 0.00 0.00 0.00 39 1011.1
20260903042039 95 240 3.0 8.0 0.00 0.00 0.00 39 1011.1
20260903041938 95 240 2.0 8.0 0.00 0.00 0.00 39 1011.1
20260903041847 95 240 1.0 8.0 0.00 0.00 0.00 39 1011.2
20260903041830 95 240 1.0 8.0 0.00 0.00 0.00 38 1011.2
20260903041618 95 240 1.0 8.0 0.00 0.00 0.00 38 1011.0
20260903041520 95 240 2.0 8.0 0.00 0.00 0.00 38 1011.1
20260903041432 95 240 3.0 8.0 0.00 0.00 0.00 38 1011.1
20260903041315 95 238 3.0 6.0 0.00 0.00 0.00 38 1011.0
20260903041218 95 237 2.0 6.0 0.00 0.00 0.00 38 1011.0
20260903041120 95 237 2.0 6.0 0.00 0.00 0.00 38 1011.1
20260903041029 95 237 2.0 6.0 0.00 0.00 0.00 38 1011.0
20260903040930 95 237 2.0 6.0 0.00 0.00 0.00 38 1011.0
20260903040815 95 238 3.0 6.0 0.00 0.00 0.00 39 1010.9
20260903040717 96 238 2.0 6.0 0.00 0.00 0.00 39 1010.9
20260903040627 96 238 1.0 5.0 0.00 0.00 0.00 38 1010.8
20260903040527 96 238 1.0 5.0 0.00 0.00 0.00 38 1010.8
20260903040429 96 238 1.0 6.0 0.00 0.00 0.00 38 1010.8
20260903040339 96 238 2.0 6.0 0.00 0.00 0.00 38 1010.8
20260903040225 96 238 2.0 6.0 0.00 0.00 0.00 38 1010.8
20260903040133 96 238 1.0 6.0 0.00 0.00 0.00 38 1010.8
20260903040046 96 238 1.0 6.0 0.00 0.00 0.00 38 1010.7
20260903035934 96 238 1.0 6.0 0.00 0.00 0.00 38 1010.7
20260903035815 96 238 1.0 6.0 0.00 0.00 0.00 38 1010.7
20260903035725 96 238 2.0 6.0 0.00 0.00 0.00 38 1010.7
20260903035630 96 238 1.0 6.0 0.00 0.00 0.00 38 1010.7
20260903035517 96 238 0.0 3.0 0.00 0.00 0.00 38 1010.6
20260903035417 96 238 1.0 3.0 0.00 0.00 0.00 38 1010.6
20260903035318 96 238 1.0 3.0 0.00 0.00 0.00 38 1010.7
20260903035227 96 238 0.0 3.0 0.00 0.00 0.00 38 1010.7
20260903035127 96 238 1.0 3.0 0.00 0.00 0.00 38 1010.6
20260903035034 96 238 1.0 3.0 0.00 0.00 0.00 38 1010.6
20260903034920 96 238 1.0 4.0 0.00 0.00 0.00 38 1010.6
20260903034821 96 238 1.0 4.0 0.00 0.00 0.00 38 1010.7
20260903034750 96 238 1.0 4.0 0.00 0.00 0.00 38 1010.7
20260903034647 96 238 1.0 4.0 0.00 0.00 0.00 38 1010.7
20260903034537 96 238 1.0 5.0 0.00 0.00 0.00 38 1010.7
20260903034417 96 360 1.0 5.0 0.00 0.00 0.00 38 1010.6
20260903034318 96 236 1.0 5.0 0.00 0.00 0.00 38 1010.6
20260903034233 96 360 1.0 5.0 0.00 0.00 0.00 37 1010.6
20260903034133 96 360 1.0 5.0 0.00 0.00 0.00 37 1010.6
20260903034015 96 360 1.0 5.0 0.00 0.00 0.00 37 1010.6
20260903033924 96 360 1.0 5.0 0.00 0.00 0.00 37 1010.7
20260903033826 96 360 2.0 5.0 0.00 0.00 0.00 37 1010.7
20260903033727 96 236 2.0 5.0 0.00 0.00 0.00 37 1010.7
20260903033641 96 236 1.0 5.0 0.00 0.00 0.00 37 1010.7
20260903033523 96 360 1.0 5.0 0.00 0.00 0.00 37 1010.6
20260903033425 96 360 1.0 5.0 0.00 0.00 0.00 37 1010.6
20260903033327 96 360 1.0 4.0 0.00 0.00 0.00 37 1010.6
20260903033236 96 360 1.0 4.0 0.00 0.00 0.00 37 1010.6
20260903033118 96 360 1.0 4.0 0.00 0.00 0.00 37 1010.6
20260903033024 96 360 1.0 4.0 0.00 0.00 0.00 37 1010.5
20260903032925 96 360 1.0 4.0 0.00 0.00 0.00 37 1010.6
20260903032836 96 360 2.0 4.0 0.00 0.00 0.00 37 1010.6
20260903032718 96 360 2.0 3.0 0.00 0.00 0.00 37 1010.6
20260903032617 96 360 1.0 4.0 0.00 0.00 0.00 37 1010.5
20260903032524 96 360 1.0 4.0 0.00 0.00 0.00 37 1010.5
20260903032431 96 360 1.0 4.0 0.00 0.00 0.00 37 1010.5
20260903032359 96 360 1.0 4.0 0.00 0.00 0.00 37 1010.6
20260903032238 96 360 0.0 4.0 0.00 0.00 0.00 36 1010.5
20260903032145 96 360 0.0 5.0 0.00 0.00 0.00 36 1010.5
20260903032026 96 360 0.0 5.0 0.00 0.00 0.00 36 1010.5
20260903031936 97 360 1.0 5.0 0.00 0.00 0.00 36 1010.5
20260903031817 97 360 2.0 5.0 0.00 0.00 0.00 36 1010.5
20260903031723 97 360 1.0 5.0 0.00 0.00 0.00 36 1010.5
20260903031625 97 236 1.0 5.0 0.00 0.00 0.00 36 1010.5
20260903031536 97 360 2.0 5.0 0.00 0.00 0.00 36 1010.5
20260903031435 97 236 2.0 5.0 0.00 0.00 0.00 36 1010.5
20260903031404 97 236 2.0 5.0 0.00 0.00 0.00 36 1010.5
20260903031220 97 360 1.0 5.0 0.00 0.00 0.00 36 1010.4
20260903031120 97 360 1.0 5.0 0.00 0.00 0.00 36 1010.5
20260903031033 97 360 1.0 5.0 0.00 0.00 0.00 36 1010.5
20260903030932 97 360 1.0 5.0 0.00 0.00 0.00 36 1010.5
20260903030831 97 360 1.0 5.0 0.00 0.00 0.00 35 1010.4
20260903030739 97 360 1.0 5.0 0.00 0.00 0.00 35 1010.4
20260903030623 97 236 1.0 5.0 0.00 0.00 0.00 35 1010.4
20260903030523 97 236 1.0 5.0 0.00 0.00 0.00 35 1010.4
20260903030438 97 236 2.0 5.0 0.00 0.00 0.00 35 1010.4
20260903030317 97 236 1.0 4.0 0.00 0.00 0.00 35 1010.3